Time,TemperatureF,DewpointF,PressureIn,WindDirection,WindDirectionDegrees,WindSpeedMPH,WindSpeedGustMPH,Humidity,HourlyPrecipIn,Conditions,Clouds,dailyrainin,SolarRadiationWatts/m^2,SoftwareType,DateUTC
2013-03-05 00:01:00,22.1,18.0,29.20,East,79,4.0,4.0,84,0.00,,,0.00,0,Wunderground v.1.15,2013-03-05 06:01:00,
2013-03-05 00:06:00,22.1,17.7,29.19,ENE,78,3.0,4.0,83,0.00,,,0.00,0,Wunderground v.1.15,2013-03-05 06:06:00,
2013-03-05 00:07:00,22.1,18.0,29.19,ENE,78,1.0,4.0,84,0.00,,,0.00,0,Wunderground v.1.15,2013-03-05 06:07:00,
2013-03-05 00:09:00,22.2,18.1,29.19,ENE,78,2.0,2.0,84,0.00,,,0.00,0,Wunderground v.1.15,2013-03-05 06:09:00,
2013-03-05 00:11:00,22.1,18.0,29.19,ENE,78,1.0,2.0,84,0.00,,,0.00,0,Wunderground v.1.15,2013-03-05 06:11:00,
2013-03-05 00:12:00,22.2,18.1,29.19,ENE,78,2.0,2.0,84,0.00,,,0.00,0,Wunderground v.1.15,2013-03-05 06:12:00,
2013-03-05 00:18:00,22.2,18.1,29.19,ENE,77,2.0,4.0,84,0.00,,,0.00,0,Wunderground v.1.15,2013-03-05 06:18:00,
2013-03-05 00:19:00,22.2,18.1,29.19,ENE,77,2.0,2.0,84,0.00,,,0.00,0,Wunderground v.1.15,2013-03-05 06:19:00,
2013-03-05 00:21:00,22.1,17.7,29.19,ENE,77,1.0,3.0,83,0.00,,,0.00,0,Wunderground v.1.15,2013-03-05 06:21:00,
2013-03-05 00:23:00,22.2,18.1,29.18,ENE,78,2.0,3.0,84,0.00,,,0.00,0,Wunderground v.1.15,2013-03-05 06:23:00,
2013-03-05 00:24:00,22.2,18.1,29.18,ENE,78,1.0,3.0,84,0.00,,,0.00,0,Wunderground v.1.15,2013-03-05 06:24:00,
2013-03-05 00:26:00,22.2,18.1,29.18,ENE,78,1.0,3.0,84,0.00,,,0.00,0,Wunderground v.1.15,2013-03-05 06:26:00,
2013-03-05 00:29:00,22.2,18.1,29.19,ENE,77,2.0,2.0,84,0.00,,,0.00,0,Wunderground v.1.15,2013-03-05 06:29:00,
2013-03-05 00:32:00,22.2,18.1,29.19,ENE,77,2.0,2.0,84,0.00,,,0.00,0,Wunderground v.1.15,2013-03-05 06:32:00,
2013-03-05 00:33:00,22.2,18.1,29.19,ENE,77,1.0,2.0,84,0.00,,,0.00,0,Wunderground v.1.15,2013-03-05 06:33:00,
2013-03-05 00:36:00,22.3,18.2,29.19,ENE,77,3.0,3.0,84,0.00,,,0.00,0,Wunderground v.1.15,2013-03-05 06:36:00,
2013-03-05 00:38:00,22.3,18.2,29.18,ENE,74,6.0,6.0,84,0.00,,,0.00,0,Wunderground v.1.15,2013-03-05 06:38:00,
2013-03-05 00:41:00,22.3,18.5,29.19,ENE,68,2.0,2.0,85,0.00,,,0.00,0,Wunderground v.1.15,2013-03-05 06:41:00,
2013-03-05 00:43:00,22.4,18.3,29.18,ENE,68,2.0,4.0,84,0.00,,,0.00,0,Wunderground v.1.15,2013-03-05 06:43:00,
2013-03-05 00:44:00,22.3,18.2,29.18,ENE,68,3.0,4.0,84,0.00,,,0.00,0,Wunderground v.1.15,2013-03-05 06:44:00,
2013-03-05 00:45:00,22.3,18.2,29.19,ENE,68,0.0,4.0,84,0.00,,,0.00,0,Wunderground v.1.15,2013-03-05 06:45:00,
2013-03-05 00:49:00,22.4,18.6,29.19,ENE,68,3.0,3.0,85,0.00,,,0.00,0,Wunderground v.1.15,2013-03-05 06:49:00,
2013-03-05 00:53:00,22.4,18.3,29.18,ENE,72,3.0,4.0,84,0.00,,,0.00,0,Wunderground v.1.15,2013-03-05 06:53:00,
2013-03-05 00:54:00,22.4,18.3,29.19,ENE,72,2.0,4.0,84,0.00,,,0.00,0,Wunderground v.1.15,2013-03-05 06:54:00,
2013-03-05 00:55:00,22.4,18.6,29.18,ENE,72,4.0,4.0,85,0.00,,,0.00,0,Wunderground v.1.15,2013-03-05 06:55:00,
2013-03-05 00:56:00,22.4,18.3,29.19,ENE,70,3.0,4.0,84,0.00,,,0.00,0,Wunderground v.1.15,2013-03-05 06:56:00,
2013-03-05 01:00:00,22.4,18.3,29.19,ENE,71,2.0,2.0,84,0.00,,,0.00,0,Wunderground v.1.15,2013-03-05 07:00:00,
2013-03-05 01:01:00,22.4,18.3,29.18,ENE,71,3.0,3.0,84,0.00,,,0.00,0,Wunderground v.1.15,2013-03-05 07:01:00,
2013-03-05 01:03:00,22.4,18.3,29.18,ENE,71,2.0,3.0,84,0.00,,,0.00,0,Wunderground v.1.15,2013-03-05 07:03:00,
2013-03-05 01:06:00,22.4,18.3,29.18,ENE,68,3.0,3.0,84,0.00,,,0.00,0,Wunderground v.1.15,2013-03-05 07:06:00,
2013-03-05 01:09:00,22.4,18.3,29.19,ENE,69,1.0,1.0,84,0.00,,,0.00,0,Wunderground v.1.15,2013-03-05 07:09:00,
2013-03-05 01:10:00,22.4,18.6,29.18,ENE,69,2.0,2.0,85,0.00,,,0.00,0,Wunderground v.1.15,2013-03-05 07:10:00,
2013-03-05 01:11:00,22.4,18.6,29.18,ENE,69,1.0,2.0,85,0.00,,,0.00,0,Wunderground v.1.15,2013-03-05 07:11:00,
2013-03-05 01:16:00,22.4,18.6,29.18,ENE,71,2.0,2.0,85,0.00,,,0.00,0,Wunderground v.1.15,2013-03-05 07:16:00,
2013-03-05 01:17:00,22.4,18.6,29.18,ENE,71,0.0,2.0,85,0.00,,,0.00,0,Wunderground v.1.15,2013-03-05 07:17:00,
2013-03-05 01:20:00,22.4,18.3,29.18,ENE,71,2.0,2.0,84,0.00,,,0.00,0,Wunderground v.1.15,2013-03-05 07:20:00,
2013-03-05 01:21:00,22.4,18.6,29.18,ENE,71,1.0,2.0,85,0.00,,,0.00,0,Wunderground v.1.15,2013-03-05 07:21:00,
2013-03-05 01:25:00,22.4,18.6,29.19,ENE,71,1.0,3.0,85,0.00,,,0.00,0,Wunderground v.1.15,2013-03-05 07:25:00,
2013-03-05 01:26:00,22.4,18.6,29.19,ENE,71,1.0,3.0,85,0.00,,,0.00,0,Wunderground v.1.15,2013-03-05 07:26:00,
2013-03-05 01:27:00,22.4,18.6,29.19,ENE,71,2.0,3.0,85,0.00,,,0.00,0,Wunderground v.1.15,2013-03-05 07:27:00,
2013-03-05 01:30:00,22.4,18.6,29.19,ENE,69,1.0,1.0,85,0.00,,,0.00,0,Wunderground v.1.15,2013-03-05 07:30:00,
2013-03-05 01:31:00,22.4,18.6,29.18,ENE,66,2.0,2.0,85,0.00,,,0.00,0,Wunderground v.1.15,2013-03-05 07:31:00,
2013-03-05 01:32:00,22.4,18.6,29.19,ENE,66,1.0,2.0,85,0.00,,,0.00,0,Wunderground v.1.15,2013-03-05 07:32:00,
2013-03-05 01:33:00,22.4,18.6,29.19,ENE,66,1.0,2.0,85,0.00,,,0.00,0,Wunderground v.1.15,2013-03-05 07:33:00,
2013-03-05 01:37:00,22.4,18.6,29.19,ENE,67,1.0,4.0,85,0.00,,,0.00,0,Wunderground v.1.15,2013-03-05 07:37:00,
2013-03-05 01:38:00,22.5,18.7,29.19,ENE,67,4.0,4.0,85,0.00,,,0.00,0,Wunderground v.1.15,2013-03-05 07:38:00,
2013-03-05 01:39:00,22.5,18.7,29.19,ENE,67,3.0,3.0,85,0.00,,,0.00,0,Wunderground v.1.15,2013-03-05 07:39:00,
2013-03-05 01:42:00,22.5,18.7,29.19,ENE,68,2.0,3.0,85,0.00,,,0.00,0,Wunderground v.1.15,2013-03-05 07:42:00,
2013-03-05 01:44:00,22.5,18.7,29.18,ENE,67,1.0,3.0,85,0.00,,,0.00,0,Wunderground v.1.15,2013-03-05 07:44:00,
2013-03-05 01:45:00,22.5,18.7,29.19,ENE,67,1.0,3.0,85,0.00,,,0.00,0,Wunderground v.1.15,2013-03-05 07:45:00,
2013-03-05 01:49:00,22.5,18.7,29.19,ENE,68,0.0,0.0,85,0.00,,,0.00,0,Wunderground v.1.15,2013-03-05 07:49:00,
2013-03-05 01:50:00,22.5,18.7,29.19,ENE,67,2.0,2.0,85,0.00,,,0.00,0,Wunderground v.1.15,2013-03-05 07:50:00,
2013-03-05 01:51:00,22.4,18.6,29.19,ENE,68,0.0,2.0,85,0.00,,,0.00,0,Wunderground v.1.15,2013-03-05 07:51:00,
2013-03-05 01:55:00,22.5,18.7,29.18,ENE,67,2.0,2.0,85,0.00,,,0.00,0,Wunderground v.1.15,2013-03-05 07:55:00,
2013-03-05 01:57:00,22.4,18.6,29.18,ENE,67,0.0,2.0,85,0.00,,,0.00,0,Wunderground v.1.15,2013-03-05 07:57:00,
2013-03-05 01:58:00,22.4,18.6,29.18,ENE,67,2.0,2.0,85,0.00,,,0.00,0,Wunderground v.1.15,2013-03-05 07:58:00,
2013-03-05 02:00:00,22.4,18.6,29.18,ENE,67,0.0,1.0,85,0.00,,,0.00,0,Wunderground v.1.15,2013-03-05 08:00:00,
2013-03-05 02:02:00,22.5,18.7,29.18,ENE,67,0.0,4.0,85,0.00,,,0.00,0,Wunderground v.1.15,2013-03-05 08:02:00,
2013-03-05 02:04:00,22.5,18.7,29.18,ENE,67,0.0,4.0,85,0.00,,,0.00,0,Wunderground v.1.15,2013-03-05 08:04:00,
2013-03-05 02:05:00,22.4,18.6,29.18,ENE,67,0.0,4.0,85,0.00,,,0.00,0,Wunderground v.1.15,2013-03-05 08:05:00,
2013-03-05 02:06:00,22.5,18.7,29.18,ENE,67,1.0,4.0,85,0.00,,,0.00,0,Wunderground v.1.15,2013-03-05 08:06:00,
2013-03-05 02:07:00,22.5,18.7,29.18,ENE,67,1.0,4.0,85,0.00,,,0.00,0,Wunderground v.1.15,2013-03-05 08:07:00,
2013-03-05 02:09:00,22.4,18.6,29.18,ENE,67,1.0,4.0,85,0.00,,,0.00,0,Wunderground v.1.15,2013-03-05 08:09:00,
2013-03-05 02:11:00,22.4,18.6,29.18,ENE,67,1.0,2.0,85,0.00,,,0.00,0,Wunderground v.1.15,2013-03-05 08:11:00,
2013-03-05 02:13:00,22.4,18.6,29.18,ENE,67,0.0,3.0,85,0.00,,,0.00,0,Wunderground v.1.15,2013-03-05 08:13:00,
2013-03-05 02:14:00,22.5,18.7,29.18,ENE,67,1.0,3.0,85,0.00,,,0.00,0,Wunderground v.1.15,2013-03-05 08:14:00,
2013-03-05 02:16:00,22.4,18.6,29.18,ENE,67,0.0,3.0,85,0.00,,,0.00,0,Wunderground v.1.15,2013-03-05 08:16:00,
2013-03-05 02:18:00,22.4,18.6,29.18,ENE,67,1.0,3.0,85,0.00,,,0.00,0,Wunderground v.1.15,2013-03-05 08:18:00,
2013-03-05 02:19:00,22.4,18.6,29.18,ENE,67,0.0,0.0,85,0.00,,,0.00,0,Wunderground v.1.15,2013-03-05 08:19:00,
2013-03-05 02:21:00,22.5,18.7,29.18,ENE,67,0.0,1.0,85,0.00,,,0.00,0,Wunderground v.1.15,2013-03-05 08:21:00,
2013-03-05 02:23:00,22.4,18.6,29.19,ENE,67,1.0,3.0,85,0.00,,,0.00,0,Wunderground v.1.15,2013-03-05 08:23:00,
2013-03-05 02:25:00,22.4,18.8,29.18,ENE,67,0.0,3.0,86,0.00,,,0.00,0,Wunderground v.1.15,2013-03-05 08:25:00,
2013-03-05 02:26:00,22.4,18.6,29.18,ENE,67,2.0,4.0,85,0.00,,,0.00,0,Wunderground v.1.15,2013-03-05 08:26:00,
2013-03-05 02:28:00,22.4,18.6,29.18,ENE,67,1.0,4.0,85,0.00,,,0.00,0,Wunderground v.1.15,2013-03-05 08:28:00,
2013-03-05 02:30:00,22.5,18.7,29.18,ENE,67,0.0,1.0,85,0.00,,,0.00,0,Wunderground v.1.15,2013-03-05 08:30:00,
2013-03-05 02:31:00,22.4,18.6,29.18,ENE,67,2.0,2.0,85,0.00,,,0.00,0,Wunderground v.1.15,2013-03-05 08:31:00,
2013-03-05 02:33:00,22.5,18.7,29.18,ENE,67,0.0,3.0,85,0.00,,,0.00,0,Wunderground v.1.15,2013-03-05 08:33:00,
2013-03-05 02:35:00,22.4,18.8,29.18,ENE,67,1.0,3.0,86,0.00,,,0.00,0,Wunderground v.1.15,2013-03-05 08:35:00,
2013-03-05 02:36:00,22.4,18.8,29.18,ENE,67,1.0,3.0,86,0.00,,,0.00,0,Wunderground v.1.15,2013-03-05 08:36:00,
2013-03-05 02:38:00,22.5,18.7,29.18,ENE,67,0.0,3.0,85,0.00,,,0.00,0,Wunderground v.1.15,2013-03-05 08:38:00,
2013-03-05 02:40:00,22.5,18.7,29.18,ENE,67,2.0,2.0,85,0.00,,,0.00,0,Wunderground v.1.15,2013-03-05 08:40:00,
2013-03-05 02:41:00,22.5,18.9,29.17,ENE,67,0.0,2.0,86,0.00,,,0.00,0,Wunderground v.1.15,2013-03-05 08:41:00,
2013-03-05 02:42:00,22.4,18.6,29.18,ENE,67,0.0,2.0,85,0.00,,,0.00,0,Wunderground v.1.15,2013-03-05 08:42:00,
2013-03-05 02:43:00,22.4,18.6,29.18,ENE,67,0.0,2.0,85,0.00,,,0.00,0,Wunderground v.1.15,2013-03-05 08:43:00,
2013-03-05 02:45:00,22.5,18.9,29.18,ENE,67,0.0,2.0,86,0.00,,,0.00,0,Wunderground v.1.15,2013-03-05 08:45:00,
2013-03-05 02:46:00,22.4,18.6,29.17,ENE,67,0.0,2.0,85,0.00,,,0.00,0,Wunderground v.1.15,2013-03-05 08:46:00,
2013-03-05 02:47:00,22.4,18.8,29.17,ENE,67,2.0,2.0,86,0.00,,,0.00,0,Wunderground v.1.15,2013-03-05 08:47:00,
2013-03-05 02:48:00,22.4,18.8,29.18,ENE,67,2.0,4.0,86,0.00,,,0.00,0,Wunderground v.1.15,2013-03-05 08:48:00,
2013-03-05 02:50:00,22.4,18.8,29.17,ENE,67,2.0,3.0,86,0.00,,,0.00,0,Wunderground v.1.15,2013-03-05 08:50:00,
2013-03-05 02:51:00,22.4,18.8,29.17,ENE,67,3.0,3.0,86,0.00,,,0.00,0,Wunderground v.1.15,2013-03-05 08:51:00,
2013-03-05 02:52:00,22.4,18.8,29.17,ENE,67,0.0,3.0,86,0.00,,,0.00,0,Wunderground v.1.15,2013-03-05 08:52:00,
2013-03-05 02:53:00,22.4,18.8,29.17,ENE,67,1.0,3.0,86,0.00,,,0.00,0,Wunderground v.1.15,2013-03-05 08:53:00,
2013-03-05 02:55:00,22.4,18.8,29.17,ENE,67,1.0,3.0,86,0.00,,,0.00,0,Wunderground v.1.15,2013-03-05 08:55:00,
2013-03-05 02:56:00,22.4,18.8,29.17,ENE,67,1.0,3.0,86,0.00,,,0.00,0,Wunderground v.1.15,2013-03-05 08:56:00,
2013-03-05 02:57:00,22.4,18.8,29.17,ENE,67,2.0,4.0,86,0.00,,,0.00,0,Wunderground v.1.15,2013-03-05 08:57:00,
2013-03-05 02:59:00,22.4,18.8,29.17,ENE,67,2.0,4.0,86,0.00,,,0.00,0,Wunderground v.1.15,2013-03-05 08:59:00,
2013-03-05 03:00:00,22.4,18.8,29.17,ENE,67,2.0,2.0,86,0.00,,,0.00,0,Wunderground v.1.15,2013-03-05 09:00:00,
2013-03-05 03:02:00,22.4,18.8,29.17,ENE,67,0.0,2.0,86,0.00,,,0.00,0,Wunderground v.1.15,2013-03-05 09:02:00,
2013-03-05 03:03:00,22.4,18.8,29.17,ENE,67,2.0,2.0,86,0.00,,,0.00,0,Wunderground v.1.15,2013-03-05 09:03:00,
2013-03-05 03:04:00,22.4,18.8,29.17,ENE,67,0.0,2.0,86,0.00,,,0.00,0,Wunderground v.1.15,2013-03-05 09:04:00,
2013-03-05 03:05:00,22.4,18.8,29.17,ENE,67,0.0,2.0,86,0.00,,,0.00,0,Wunderground v.1.15,2013-03-05 09:05:00,
2013-03-05 03:07:00,22.4,18.8,29.17,ENE,67,0.0,2.0,86,0.00,,,0.00,0,Wunderground v.1.15,2013-03-05 09:07:00,
2013-03-05 03:08:00,22.4,18.8,29.17,ENE,67,2.0,2.0,86,0.00,,,0.00,0,Wunderground v.1.15,2013-03-05 09:08:00,
2013-03-05 03:09:00,22.4,18.8,29.18,ENE,67,0.0,2.0,86,0.00,,,0.00,0,Wunderground v.1.15,2013-03-05 09:09:00,
2013-03-05 03:10:00,22.4,18.8,29.17,ENE,67,0.0,1.0,86,0.00,,,0.00,0,Wunderground v.1.15,2013-03-05 09:10:00,
2013-03-05 03:12:00,22.4,18.8,29.17,ENE,66,1.0,5.0,86,0.00,,,0.00,0,Wunderground v.1.15,2013-03-05 09:12:00,
2013-03-05 03:13:00,22.3,18.7,29.17,ENE,66,1.0,5.0,86,0.00,,,0.00,0,Wunderground v.1.15,2013-03-05 09:13:00,
2013-03-05 03:14:00,22.4,18.8,29.17,ENE,66,1.0,5.0,86,0.00,,,0.00,0,Wunderground v.1.15,2013-03-05 09:14:00,
2013-03-05 03:15:00,22.4,18.8,29.17,ENE,66,2.0,5.0,86,0.00,,,0.00,0,Wunderground v.1.15,2013-03-05 09:15:00,
2013-03-05 03:17:00,22.4,18.8,29.17,ENE,66,0.0,5.0,86,0.00,,,0.00,0,Wunderground v.1.15,2013-03-05 09:17:00,
2013-03-05 03:18:00,22.4,18.8,29.17,ENE,65,2.0,5.0,86,0.00,,,0.00,0,Wunderground v.1.15,2013-03-05 09:18:00,
2013-03-05 03:19:00,22.4,18.8,29.17,ENE,65,0.0,5.0,86,0.00,,,0.00,0,Wunderground v.1.15,2013-03-05 09:19:00,
2013-03-05 03:20:00,22.4,18.8,29.17,ENE,65,0.0,2.0,86,0.00,,,0.00,0,Wunderground v.1.15,2013-03-05 09:20:00,
2013-03-05 03:22:00,22.3,18.7,29.16,ENE,65,1.0,4.0,86,0.00,,,0.00,0,Wunderground v.1.15,2013-03-05 09:22:00,
2013-03-05 03:24:00,22.4,18.8,29.16,ENE,65,2.0,4.0,86,0.00,,,0.00,0,Wunderground v.1.15,2013-03-05 09:24:00,
2013-03-05 03:25:00,22.4,18.8,29.16,ENE,65,1.0,5.0,86,0.00,,,0.00,0,Wunderground v.1.15,2013-03-05 09:25:00,
2013-03-05 03:27:00,22.4,18.8,29.17,ENE,65,3.0,5.0,86,0.00,,,0.00,0,Wunderground v.1.15,2013-03-05 09:27:00,
2013-03-05 03:29:00,22.4,18.8,29.17,ENE,65,1.0,5.0,86,0.00,,,0.00,0,Wunderground v.1.15,2013-03-05 09:29:00,
2013-03-05 03:30:00,22.4,18.8,29.17,ENE,65,0.0,0.0,86,0.00,,,0.00,0,Wunderground v.1.15,2013-03-05 09:30:00,
2013-03-05 03:32:00,22.4,18.8,29.17,ENE,65,2.0,4.0,86,0.00,,,0.00,0,Wunderground v.1.15,2013-03-05 09:32:00,
2013-03-05 03:34:00,22.4,18.8,29.16,ENE,65,2.0,4.0,86,0.00,,,0.00,0,Wunderground v.1.15,2013-03-05 09:34:00,
2013-03-05 03:35:00,22.4,19.1,29.16,ENE,65,1.0,4.0,87,0.00,,,0.00,0,Wunderground v.1.15,2013-03-05 09:35:00,
2013-03-05 03:37:00,22.4,19.1,29.17,ENE,65,1.0,4.0,87,0.00,,,0.00,0,Wunderground v.1.15,2013-03-05 09:37:00,
2013-03-05 03:39:00,22.5,19.2,29.17,ENE,65,0.0,4.0,87,0.00,,,0.00,0,Wunderground v.1.15,2013-03-05 09:39:00,
2013-03-05 03:40:00,22.4,18.8,29.17,ENE,65,1.0,2.0,86,0.00,,,0.00,0,Wunderground v.1.15,2013-03-05 09:40:00,
2013-03-05 03:43:00,22.4,19.1,29.17,ENE,65,2.0,5.0,87,0.00,,,0.00,0,Wunderground v.1.15,2013-03-05 09:43:00,
2013-03-05 03:44:00,22.4,18.8,29.17,ENE,65,1.0,5.0,86,0.00,,,0.00,0,Wunderground v.1.15,2013-03-05 09:44:00,
2013-03-05 03:45:00,22.5,19.2,29.17,ENE,65,1.0,5.0,87,0.00,,,0.00,0,Wunderground v.1.15,2013-03-05 09:45:00,
2013-03-05 03:46:00,22.4,19.1,29.17,ENE,65,1.0,5.0,87,0.00,,,0.00,0,Wunderground v.1.15,2013-03-05 09:46:00,
2013-03-05 03:48:00,22.4,19.1,29.16,ENE,65,2.0,5.0,87,0.00,,,0.00,0,Wunderground v.1.15,2013-03-05 09:48:00,
2013-03-05 03:49:00,22.4,19.1,29.17,ENE,65,1.0,5.0,87,0.00,,,0.00,0,Wunderground v.1.15,2013-03-05 09:49:00,
2013-03-05 03:50:00,22.4,19.1,29.16,ENE,65,0.0,2.0,87,0.00,,,0.00,0,Wunderground v.1.15,2013-03-05 09:50:00,
2013-03-05 03:51:00,22.4,19.1,29.16,ENE,65,0.0,2.0,87,0.00,,,0.00,0,Wunderground v.1.15,2013-03-05 09:51:00,
2013-03-05 03:54:00,22.4,19.1,29.16,ENE,65,3.0,3.0,87,0.00,,,0.00,0,Wunderground v.1.15,2013-03-05 09:54:00,
2013-03-05 03:56:00,22.4,19.1,29.17,ENE,65,1.0,4.0,87,0.00,,,0.00,0,Wunderground v.1.15,2013-03-05 09:56:00,
2013-03-05 03:59:00,22.4,19.1,29.16,ENE,65,2.0,5.0,87,0.00,,,0.00,0,Wunderground v.1.15,2013-03-05 09:59:00,
2013-03-05 04:01:00,22.4,19.1,29.17,ENE,65,3.0,3.0,87,0.00,,,0.00,0,Wunderground v.1.15,2013-03-05 10:01:00,
2013-03-05 04:04:00,22.4,19.1,29.17,ENE,65,0.0,3.0,87,0.00,,,0.00,0,Wunderground v.1.15,2013-03-05 10:04:00,
2013-03-05 04:05:00,22.4,19.1,29.16,ENE,65,1.0,3.0,87,0.00,,,0.00,0,Wunderground v.1.15,2013-03-05 10:05:00,
2013-03-05 04:06:00,22.4,19.1,29.16,ENE,65,1.0,3.0,87,0.00,,,0.00,0,Wunderground v.1.15,2013-03-05 10:06:00,
2013-03-05 04:09:00,22.4,19.1,29.17,ENE,65,1.0,4.0,87,0.00,,,0.00,0,Wunderground v.1.15,2013-03-05 10:09:00,
2013-03-05 04:10:00,22.4,19.1,29.17,ENE,65,0.0,1.0,87,0.00,,,0.00,0,Wunderground v.1.15,2013-03-05 10:10:00,
2013-03-05 04:11:00,22.4,19.1,29.17,ENE,65,2.0,2.0,87,0.00,,,0.00,0,Wunderground v.1.15,2013-03-05 10:11:00,
2013-03-05 04:14:00,22.4,19.1,29.17,ENE,65,0.0,2.0,87,0.00,,,0.00,0,Wunderground v.1.15,2013-03-05 10:14:00,
2013-03-05 04:15:00,22.5,19.2,29.17,ENE,65,1.0,2.0,87,0.00,,,0.00,0,Wunderground v.1.15,2013-03-05 10:15:00,
2013-03-05 04:16:00,22.4,19.1,29.17,ENE,65,1.0,3.0,87,0.00,,,0.00,0,Wunderground v.1.15,2013-03-05 10:16:00,
2013-03-05 04:19:00,22.4,19.1,29.17,ENE,65,1.0,1.0,87,0.00,,,0.00,0,Wunderground v.1.15,2013-03-05 10:19:00,
2013-03-05 04:20:00,22.4,19.1,29.17,ENE,65,2.0,4.0,87,0.00,,,0.00,0,Wunderground v.1.15,2013-03-05 10:20:00,
2013-03-05 04:21:00,22.4,19.1,29.17,ENE,65,3.0,4.0,87,0.00,,,0.00,0,Wunderground v.1.15,2013-03-05 10:21:00,
2013-03-05 04:24:00,22.4,19.1,29.17,ENE,64,1.0,6.0,87,0.00,,,0.00,0,Wunderground v.1.15,2013-03-05 10:24:00,
2013-03-05 04:25:00,22.4,19.1,29.17,ENE,64,0.0,6.0,87,0.00,,,0.00,0,Wunderground v.1.15,2013-03-05 10:25:00,
2013-03-05 04:26:00,22.4,19.1,29.17,ENE,64,1.0,6.0,87,0.00,,,0.00,0,Wunderground v.1.15,2013-03-05 10:26:00,
2013-03-05 04:30:00,22.4,19.1,29.16,ENE,64,1.0,2.0,87,0.00,,,0.00,0,Wunderground v.1.15,2013-03-05 10:30:00,
2013-03-05 04:31:00,22.4,19.1,29.17,ENE,64,1.0,2.0,87,0.00,,,0.00,0,Wunderground v.1.15,2013-03-05 10:31:00,
2013-03-05 04:35:00,22.4,19.1,29.17,ENE,64,1.0,4.0,87,0.00,,,0.00,0,Wunderground v.1.15,2013-03-05 10:35:00,
2013-03-05 04:36:00,22.4,19.1,29.17,ENE,64,1.0,4.0,87,0.00,,,0.00,0,Wunderground v.1.15,2013-03-05 10:36:00,
2013-03-05 04:40:00,22.4,19.1,29.16,ENE,64,1.0,2.0,87,0.00,,,0.00,0,Wunderground v.1.15,2013-03-05 10:40:00,
2013-03-05 04:41:00,22.4,19.1,29.17,ENE,65,2.0,3.0,87,0.00,,,0.00,0,Wunderground v.1.15,2013-03-05 10:41:00,
2013-03-05 04:45:00,22.4,19.4,29.16,ENE,64,3.0,5.0,88,0.00,,,0.00,0,Wunderground v.1.15,2013-03-05 10:45:00,
2013-03-05 04:46:00,22.3,19.0,29.17,ENE,64,2.0,5.0,87,0.00,,,0.00,0,Wunderground v.1.15,2013-03-05 10:46:00,
2013-03-05 04:47:00,22.4,19.1,29.17,ENE,62,4.0,5.0,87,0.00,,,0.00,0,Wunderground v.1.15,2013-03-05 10:47:00,
2013-03-05 04:50:00,22.4,19.1,29.17,ENE,62,0.0,1.0,87,0.00,,,0.00,0,Wunderground v.1.15,2013-03-05 10:50:00,
2013-03-05 04:52:00,22.3,19.3,29.17,ENE,62,1.0,2.0,88,0.00,,,0.00,0,Wunderground v.1.15,2013-03-05 10:52:00,
2013-03-05 04:53:00,22.4,19.1,29.17,ENE,62,3.0,4.0,87,0.00,,,0.00,0,Wunderground v.1.15,2013-03-05 10:53:00,
2013-03-05 04:55:00,22.4,19.1,29.17,ENE,62,2.0,4.0,87,0.00,,,0.00,0,Wunderground v.1.15,2013-03-05 10:55:00,
2013-03-05 04:57:00,22.3,19.0,29.17,ENE,61,1.0,5.0,87,0.00,,,0.00,0,Wunderground v.1.15,2013-03-05 10:57:00,
2013-03-05 04:58:00,22.4,19.1,29.17,ENE,61,1.0,5.0,87,0.00,,,0.00,0,Wunderground v.1.15,2013-03-05 10:58:00,
2013-03-05 05:00:00,22.3,19.3,29.17,ENE,61,1.0,4.0,88,0.00,,,0.00,0,Wunderground v.1.15,2013-03-05 11:00:00,
2013-03-05 05:02:00,22.3,19.0,29.17,ENE,61,2.0,4.0,87,0.00,,,0.00,0,Wunderground v.1.15,2013-03-05 11:02:00,
2013-03-05 05:03:00,22.3,19.0,29.17,ENE,61,2.0,4.0,87,0.00,,,0.00,0,Wunderground v.1.15,2013-03-05 11:03:00,
2013-03-05 05:04:00,22.3,19.0,29.18,ENE,61,1.0,4.0,87,0.00,,,0.00,0,Wunderground v.1.15,2013-03-05 11:04:00,
2013-03-05 05:05:00,22.3,19.0,29.17,ENE,61,2.0,5.0,87,0.00,,,0.00,0,Wunderground v.1.15,2013-03-05 11:05:00,
2013-03-05 05:07:00,22.3,19.3,29.17,ENE,61,4.0,5.0,88,0.00,,,0.00,0,Wunderground v.1.15,2013-03-05 11:07:00,
2013-03-05 05:08:00,22.3,19.0,29.17,ENE,61,5.0,5.0,87,0.00,,,0.00,0,Wunderground v.1.15,2013-03-05 11:08:00,
2013-03-05 05:09:00,22.3,19.0,29.18,ENE,61,1.0,1.0,87,0.00,,,0.00,0,Wunderground v.1.15,2013-03-05 11:09:00,
2013-03-05 05:10:00,22.3,19.0,29.17,ENE,61,3.0,4.0,87,0.00,,,0.00,0,Wunderground v.1.15,2013-03-05 11:10:00,
2013-03-05 05:12:00,22.2,18.9,29.17,ENE,61,2.0,4.0,87,0.00,,,0.00,0,Wunderground v.1.15,2013-03-05 11:12:00,
2013-03-05 05:13:00,22.2,18.9,29.17,ENE,61,4.0,4.0,87,0.00,,,0.00,0,Wunderground v.1.15,2013-03-05 11:13:00,
2013-03-05 05:14:00,22.3,19.0,29.17,ENE,61,2.0,4.0,87,0.00,,,0.00,0,Wunderground v.1.15,2013-03-05 11:14:00,
2013-03-05 05:16:00,22.3,19.3,29.18,ENE,62,3.0,6.0,88,0.00,,,0.00,0,Wunderground v.1.15,2013-03-05 11:16:00,
2013-03-05 05:17:00,22.3,19.0,29.17,ENE,62,4.0,6.0,87,0.00,,,0.00,0,Wunderground v.1.15,2013-03-05 11:17:00,
2013-03-05 05:18:00,22.3,19.0,29.17,ENE,62,3.0,6.0,87,0.00,,,0.00,0,Wunderground v.1.15,2013-03-05 11:18:00,
2013-03-05 05:20:00,22.3,19.3,29.18,ENE,62,3.0,3.0,88,0.00,,,0.00,0,Wunderground v.1.15,2013-03-05 11:20:00,
2013-03-05 05:21:00,22.2,18.9,29.18,ENE,62,3.0,4.0,87,0.00,,,0.00,0,Wunderground v.1.15,2013-03-05 11:21:00,
2013-03-05 05:22:00,22.2,18.9,29.17,ENE,62,1.0,4.0,87,0.00,,,0.00,0,Wunderground v.1.15,2013-03-05 11:22:00,
2013-03-05 05:23:00,22.2,18.9,29.17,ENE,62,3.0,6.0,87,0.00,,,0.00,0,Wunderground v.1.15,2013-03-05 11:23:00,
2013-03-05 05:25:00,22.2,18.9,29.17,ENE,62,2.0,6.0,87,0.00,,,0.00,0,Wunderground v.1.15,2013-03-05 11:25:00,
2013-03-05 05:27:00,22.2,18.9,29.17,ENE,62,1.0,6.0,87,0.00,,,0.00,0,Wunderground v.1.15,2013-03-05 11:27:00,
2013-03-05 05:28:00,22.2,18.9,29.17,ENE,62,1.0,6.0,87,0.00,,,0.00,0,Wunderground v.1.15,2013-03-05 11:28:00,
2013-03-05 05:29:00,22.2,19.2,29.17,ENE,62,1.0,6.0,88,0.00,,,0.00,0,Wunderground v.1.15,2013-03-05 11:29:00,
2013-03-05 05:30:00,22.2,19.2,29.17,ENE,62,1.0,3.0,88,0.00,,,0.00,0,Wunderground v.1.15,2013-03-05 11:30:00,
2013-03-05 05:32:00,22.1,19.1,29.17,ENE,62,3.0,4.0,88,0.00,,,0.00,0,Wunderground v.1.15,2013-03-05 11:32:00,
2013-03-05 05:33:00,22.2,19.2,29.17,ENE,62,2.0,4.0,88,0.00,,,0.00,0,Wunderground v.1.15,2013-03-05 11:33:00,
2013-03-05 05:34:00,22.2,19.2,29.17,ENE,62,0.0,4.0,88,0.00,,,0.00,0,Wunderground v.1.15,2013-03-05 11:34:00,
2013-03-05 05:35:00,22.2,18.9,29.17,ENE,62,3.0,4.0,87,0.00,,,0.00,0,Wunderground v.1.15,2013-03-05 11:35:00,
2013-03-05 05:37:00,22.2,18.9,29.17,ENE,62,4.0,4.0,87,0.00,,,0.00,0,Wunderground v.1.15,2013-03-05 11:37:00,
2013-03-05 05:39:00,22.2,19.2,29.17,ENE,62,1.0,5.0,88,0.00,,,0.00,0,Wunderground v.1.15,2013-03-05 11:39:00,
2013-03-05 05:40:00,22.2,19.2,29.17,ENE,62,2.0,5.0,88,0.00,,,0.00,0,Wunderground v.1.15,2013-03-05 11:40:00,
2013-03-05 05:42:00,22.2,19.2,29.17,ENE,62,1.0,5.0,88,0.00,,,0.00,0,Wunderground v.1.15,2013-03-05 11:42:00,
2013-03-05 05:44:00,22.1,18.8,29.18,ENE,62,3.0,6.0,87,0.00,,,0.00,0,Wunderground v.1.15,2013-03-05 11:44:00,
2013-03-05 05:45:00,22.1,19.1,29.17,ENE,62,2.0,6.0,88,0.00,,,0.00,0,Wunderground v.1.15,2013-03-05 11:45:00,
2013-03-05 05:47:00,22.1,19.1,29.17,ENE,62,2.0,6.0,88,0.00,,,0.00,0,Wunderground v.1.15,2013-03-05 11:47:00,
2013-03-05 05:49:00,22.1,18.8,29.17,ENE,62,2.0,6.0,87,0.00,,,0.00,0,Wunderground v.1.15,2013-03-05 11:49:00,
2013-03-05 05:50:00,22.1,19.1,29.18,ENE,61,4.0,5.0,88,0.00,,,0.00,0,Wunderground v.1.15,2013-03-05 11:50:00,
2013-03-05 05:52:00,22.1,19.1,29.18,ENE,61,3.0,5.0,88,0.00,,,0.00,0,Wunderground v.1.15,2013-03-05 11:52:00,
2013-03-05 05:54:00,22.1,19.1,29.17,ENE,61,0.0,5.0,88,0.00,,,0.00,0,Wunderground v.1.15,2013-03-05 11:54:00,
2013-03-05 05:55:00,22.2,19.2,29.18,ENE,61,2.0,5.0,88,0.00,,,0.00,0,Wunderground v.1.15,2013-03-05 11:55:00,
2013-03-05 05:57:00,22.1,19.1,29.17,ENE,61,3.0,5.0,88,0.00,,,0.00,0,Wunderground v.1.15,2013-03-05 11:57:00,
2013-03-05 05:59:00,22.1,19.1,29.18,ENE,61,1.0,2.0,88,0.00,,,0.00,0,Wunderground v.1.15,2013-03-05 11:59:00,
2013-03-05 06:00:00,22.1,19.1,29.17,ENE,61,1.0,2.0,88,0.00,,,0.00,0,Wunderground v.1.15,2013-03-05 12:00:00,
2013-03-05 06:01:00,22.1,19.1,29.18,ENE,61,3.0,4.0,88,0.00,,,0.00,0,Wunderground v.1.15,2013-03-05 12:01:00,
2013-03-05 06:02:00,22.1,19.1,29.17,ENE,61,1.0,5.0,88,0.00,,,0.00,0,Wunderground v.1.15,2013-03-05 12:02:00,
2013-03-05 06:04:00,22.1,19.1,29.18,ENE,61,1.0,5.0,88,0.00,,,0.00,0,Wunderground v.1.15,2013-03-05 12:04:00,
2013-03-05 06:05:00,22.1,19.1,29.18,ENE,61,3.0,5.0,88,0.00,,,0.00,0,Wunderground v.1.15,2013-03-05 12:05:00,
2013-03-05 06:06:00,22.0,19.0,29.17,ENE,61,1.0,5.0,88,0.00,,,0.00,0,Wunderground v.1.15,2013-03-05 12:06:00,
2013-03-05 06:07:00,22.1,19.1,29.18,ENE,61,1.0,5.0,88,0.00,,,0.00,0,Wunderground v.1.15,2013-03-05 12:07:00,
2013-03-05 06:10:00,22.1,19.1,29.18,ENE,62,3.0,6.0,88,0.00,,,0.00,0,Wunderground v.1.15,2013-03-05 12:10:00,
2013-03-05 06:11:00,22.1,19.1,29.18,ENE,62,1.0,6.0,88,0.00,,,0.00,0,Wunderground v.1.15,2013-03-05 12:11:00,
2013-03-05 06:12:00,22.1,19.1,29.18,ENE,62,1.0,6.0,88,0.00,,,0.00,0,Wunderground v.1.15,2013-03-05 12:12:00,
2013-03-05 06:15:00,22.1,19.1,29.18,ENE,62,3.0,6.0,88,0.00,,,0.00,0,Wunderground v.1.15,2013-03-05 12:15:00,
2013-03-05 06:16:00,22.0,19.0,29.18,ENE,62,1.0,6.0,88,0.00,,,0.00,0,Wunderground v.1.15,2013-03-05 12:16:00,
2013-03-05 06:17:00,22.0,19.0,29.18,ENE,62,2.0,6.0,88,0.00,,,0.00,0,Wunderground v.1.15,2013-03-05 12:17:00,
2013-03-05 06:20:00,22.0,19.0,29.18,ENE,62,0.0,2.0,88,0.00,,,0.00,0,Wunderground v.1.15,2013-03-05 12:20:00,
2013-03-05 06:21:00,22.1,19.1,29.18,ENE,62,0.0,2.0,88,0.00,,,0.00,0,Wunderground v.1.15,2013-03-05 12:21:00,
2013-03-05 06:22:00,22.0,19.0,29.19,ENE,62,1.0,2.0,88,0.00,,,0.00,0,Wunderground v.1.15,2013-03-05 12:22:00,
2013-03-05 06:25:00,22.0,19.0,29.18,ENE,62,2.0,4.0,88,0.00,,,0.00,0,Wunderground v.1.15,2013-03-05 12:25:00,
2013-03-05 06:26:00,22.0,19.0,29.18,ENE,62,4.0,5.0,88,0.00,,,0.00,0,Wunderground v.1.15,2013-03-05 12:26:00,
2013-03-05 06:28:00,22.0,19.0,29.18,ENE,62,1.0,5.0,88,0.00,,,0.00,0,Wunderground v.1.15,2013-03-05 12:28:00,
2013-03-05 06:30:00,22.0,19.0,29.18,ENE,61,1.0,4.0,88,0.00,,,0.00,0,Wunderground v.1.15,2013-03-05 12:30:00,
2013-03-05 06:31:00,22.0,19.0,29.19,ENE,62,2.0,4.0,88,0.00,,,0.00,0,Wunderground v.1.15,2013-03-05 12:31:00,
2013-03-05 06:32:00,22.0,19.0,29.18,ENE,62,0.0,4.0,88,0.00,,,0.00,0,Wunderground v.1.15,2013-03-05 12:32:00,
2013-03-05 06:33:00,22.0,19.0,29.18,ENE,62,3.0,5.0,88,0.00,,,0.00,0,Wunderground v.1.15,2013-03-05 12:33:00,
2013-03-05 06:35:00,22.0,19.0,29.18,ENE,62,3.0,5.0,88,0.00,,,0.00,0,Wunderground v.1.15,2013-03-05 12:35:00,
2013-03-05 06:36:00,22.0,19.0,29.18,ENE,62,2.0,5.0,88,0.00,,,0.00,0,Wunderground v.1.15,2013-03-05 12:36:00,
2013-03-05 06:37:00,22.0,19.0,29.18,ENE,62,1.0,5.0,88,0.00,,,0.00,0,Wunderground v.1.15,2013-03-05 12:37:00,
2013-03-05 06:38:00,22.0,19.0,29.18,ENE,62,2.0,5.0,88,0.00,,,0.00,0,Wunderground v.1.15,2013-03-05 12:38:00,
2013-03-05 06:41:00,22.0,19.0,29.18,ENE,62,2.0,2.0,88,0.00,,,0.00,0,Wunderground v.1.15,2013-03-05 12:41:00,
2013-03-05 06:42:00,22.0,19.0,29.18,ENE,62,2.0,3.0,88,0.00,,,0.00,0,Wunderground v.1.15,2013-03-05 12:42:00,
2013-03-05 06:44:00,22.0,19.0,29.18,ENE,62,4.0,5.0,88,0.00,,,0.00,0,Wunderground v.1.15,2013-03-05 12:44:00,
2013-03-05 06:46:00,22.0,19.0,29.18,ENE,61,4.0,5.0,88,0.00,,,0.00,0,Wunderground v.1.15,2013-03-05 12:46:00,
2013-03-05 06:47:00,22.0,19.0,29.18,ENE,61,4.0,5.0,88,0.00,,,0.00,0,Wunderground v.1.15,2013-03-05 12:47:00,
2013-03-05 06:49:00,22.0,19.0,29.18,ENE,61,3.0,5.0,88,0.00,,,0.00,0,Wunderground v.1.15,2013-03-05 12:49:00,
2013-03-05 06:51:00,21.9,18.9,29.18,ENE,61,1.0,4.0,88,0.00,,,0.00,0,Wunderground v.1.15,2013-03-05 12:51:00,
2013-03-05 06:52:00,22.0,19.0,29.18,ENE,61,0.0,4.0,88,0.00,,,0.00,0,Wunderground v.1.15,2013-03-05 12:52:00,
2013-03-05 06:54:00,22.0,19.0,29.18,ENE,61,2.0,5.0,88,0.00,,,0.00,0,Wunderground v.1.15,2013-03-05 12:54:00,
2013-03-05 06:56:00,22.0,19.0,29.18,ENE,61,2.0,5.0,88,0.00,,,0.00,0,Wunderground v.1.15,2013-03-05 12:56:00,
2013-03-05 06:57:00,22.0,19.0,29.18,ENE,61,1.0,5.0,88,0.00,,,0.00,0,Wunderground v.1.15,2013-03-05 12:57:00,
2013-03-05 06:59:00,22.0,19.0,29.18,ENE,61,2.0,5.0,88,0.00,,,0.00,0,Wunderground v.1.15,2013-03-05 12:59:00,
2013-03-05 07:02:00,22.0,19.0,29.19,ENE,61,3.0,4.0,88,0.00,,,0.00,0,Wunderground v.1.15,2013-03-05 13:02:00,
2013-03-05 07:03:00,22.0,19.0,29.18,ENE,60,3.0,5.0,88,0.00,,,0.00,0,Wunderground v.1.15,2013-03-05 13:03:00,
2013-03-05 07:04:00,22.0,19.0,29.18,ENE,60,3.0,5.0,88,0.00,,,0.00,0,Wunderground v.1.15,2013-03-05 13:04:00,
2013-03-05 07:07:00,22.0,19.0,29.19,ENE,59,4.0,6.0,88,0.00,,,0.00,0,Wunderground v.1.15,2013-03-05 13:07:00,
2013-03-05 07:08:00,22.0,19.0,29.19,ENE,59,3.0,6.0,88,0.00,,,0.00,0,Wunderground v.1.15,2013-03-05 13:08:00,
2013-03-05 07:09:00,22.0,19.0,29.19,ENE,60,3.0,3.0,88,0.00,,,0.00,0,Wunderground v.1.15,2013-03-05 13:09:00,
2013-03-05 07:12:00,22.0,19.0,29.19,ENE,60,2.0,5.0,88,0.00,,,0.00,0,Wunderground v.1.15,2013-03-05 13:12:00,
2013-03-05 07:13:00,22.0,19.0,29.19,ENE,60,4.0,5.0,88,0.00,,,0.00,0,Wunderground v.1.15,2013-03-05 13:13:00,
2013-03-05 07:14:00,22.0,19.0,29.19,ENE,59,1.0,6.0,88,0.00,,,0.00,0,Wunderground v.1.15,2013-03-05 13:14:00,
2013-03-05 07:17:00,22.0,19.3,29.19,ENE,59,2.0,6.0,89,0.00,,,0.00,0,Wunderground v.1.15,2013-03-05 13:17:00,
2013-03-05 07:18:00,22.0,19.0,29.19,ENE,59,2.0,6.0,88,0.00,,,0.00,0,Wunderground v.1.15,2013-03-05 13:18:00,
2013-03-05 07:19:00,22.0,19.0,29.19,ENE,58,3.0,4.0,88,0.00,,,0.00,0,Wunderground v.1.15,2013-03-05 13:19:00,
2013-03-05 07:22:00,22.0,19.0,29.19,ENE,59,3.0,6.0,88,0.00,,,0.00,0,Wunderground v.1.15,2013-03-05 13:22:00,
2013-03-05 07:23:00,22.0,19.0,29.19,ENE,59,3.0,6.0,88,0.00,,,0.00,0,Wunderground v.1.15,2013-03-05 13:23:00,
2013-03-05 07:24:00,22.1,19.4,29.19,ENE,59,3.0,6.0,89,0.00,,,0.00,0,Wunderground v.1.15,2013-03-05 13:24:00,
2013-03-05 07:25:00,22.1,19.4,29.19,ENE,58,2.0,6.0,89,0.00,,,0.00,0,Wunderground v.1.15,2013-03-05 13:25:00,
2013-03-05 07:28:00,22.1,19.1,29.19,ENE,58,2.0,6.0,88,0.00,,,0.00,0,Wunderground v.1.15,2013-03-05 13:28:00,
2013-03-05 07:29:00,22.0,19.3,29.19,ENE,58,4.0,6.0,89,0.00,,,0.00,0,Wunderground v.1.15,2013-03-05 13:29:00,
2013-03-05 07:30:00,22.0,19.3,29.19,ENE,58,5.0,7.0,89,0.00,,,0.00,0,Wunderground v.1.15,2013-03-05 13:30:00,
2013-03-05 07:33:00,22.0,19.3,29.20,ENE,59,3.0,7.0,89,0.00,,,0.00,0,Wunderground v.1.15,2013-03-05 13:33:00,
2013-03-05 07:34:00,22.1,19.4,29.19,ENE,58,4.0,7.0,89,0.00,,,0.00,0,Wunderground v.1.15,2013-03-05 13:34:00,
2013-03-05 07:35:00,22.0,19.3,29.19,ENE,59,5.0,7.0,89,0.00,,,0.00,0,Wunderground v.1.15,2013-03-05 13:35:00,
2013-03-05 07:38:00,22.1,19.4,29.19,ENE,59,3.0,7.0,89,0.00,,,0.00,0,Wunderground v.1.15,2013-03-05 13:38:00,
2013-03-05 07:39:00,22.1,19.1,29.19,ENE,59,1.0,7.0,88,0.00,,,0.00,0,Wunderground v.1.15,2013-03-05 13:39:00,
2013-03-05 07:40:00,22.1,19.4,29.19,ENE,59,1.0,3.0,89,0.00,,,0.00,0,Wunderground v.1.15,2013-03-05 13:40:00,
2013-03-05 07:44:00,22.1,19.4,29.20,ENE,59,4.0,7.0,89,0.00,,,0.00,0,Wunderground v.1.15,2013-03-05 13:44:00,
2013-03-05 07:45:00,22.2,19.5,29.20,ENE,59,4.0,7.0,89,0.00,,,0.00,0,Wunderground v.1.15,2013-03-05 13:45:00,
2013-03-05 07:49:00,22.2,19.5,29.20,ENE,58,5.0,7.0,89,0.00,,,0.00,0,Wunderground v.1.15,2013-03-05 13:49:00,
2013-03-05 07:50:00,22.2,19.5,29.19,ENE,58,2.0,5.0,89,0.00,,,0.00,0,Wunderground v.1.15,2013-03-05 13:50:00,
2013-03-05 07:51:00,22.1,19.4,29.19,ENE,58,0.0,5.0,89,0.00,,,0.00,0,Wunderground v.1.15,2013-03-05 13:51:00,
2013-03-05 07:54:00,22.2,19.5,29.19,ENE,58,3.0,5.0,89,0.00,,,0.00,0,Wunderground v.1.15,2013-03-05 13:54:00,
2013-03-05 07:55:00,22.2,19.5,29.19,ENE,58,4.0,5.0,89,0.00,,,0.00,0,Wunderground v.1.15,2013-03-05 13:55:00,
2013-03-05 07:57:00,22.3,19.6,29.20,ENE,58,3.0,6.0,89,0.00,,,0.00,0,Wunderground v.1.15,2013-03-05 13:57:00,
2013-03-05 07:59:00,22.3,19.6,29.19,ENE,58,7.0,8.0,89,0.00,,,0.00,0,Wunderground v.1.15,2013-03-05 13:59:00,
2013-03-05 08:00:00,22.3,19.6,29.19,ENE,59,5.0,6.0,89,0.00,,,0.00,0,Wunderground v.1.15,2013-03-05 14:00:00,
2013-03-05 08:02:00,22.3,19.6,29.19,ENE,59,0.0,6.0,89,0.00,,,0.00,0,Wunderground v.1.15,2013-03-05 14:02:00,
2013-03-05 08:05:00,22.3,19.6,29.20,ENE,58,1.0,6.0,89,0.00,,,0.00,0,Wunderground v.1.15,2013-03-05 14:05:00,
2013-03-05 08:06:00,22.3,19.6,29.20,ENE,58,3.0,6.0,89,0.00,,,0.00,0,Wunderground v.1.15,2013-03-05 14:06:00,
2013-03-05 08:07:00,22.4,19.6,29.20,ENE,58,1.0,6.0,89,0.00,,,0.00,0,Wunderground v.1.15,2013-03-05 14:07:00,
2013-03-05 08:10:00,22.4,19.6,29.19,ENE,58,1.0,3.0,89,0.00,,,0.00,0,Wunderground v.1.15,2013-03-05 14:10:00,
2013-03-05 08:11:00,22.4,19.6,29.19,ENE,58,3.0,4.0,89,0.00,,,0.00,0,Wunderground v.1.15,2013-03-05 14:11:00,
2013-03-05 08:12:00,22.4,19.6,29.20,ENE,58,4.0,6.0,89,0.00,,,0.00,0,Wunderground v.1.15,2013-03-05 14:12:00,
2013-03-05 08:15:00,22.4,19.6,29.20,ENE,58,4.0,6.0,89,0.00,,,0.00,0,Wunderground v.1.15,2013-03-05 14:15:00,
2013-03-05 08:16:00,22.4,19.6,29.19,ENE,58,2.0,6.0,89,0.00,,,0.00,0,Wunderground v.1.15,2013-03-05 14:16:00,
2013-03-05 08:17:00,22.4,19.6,29.20,ENE,58,1.0,6.0,89,0.00,,,0.00,0,Wunderground v.1.15,2013-03-05 14:17:00,
2013-03-05 08:21:00,22.5,19.7,29.19,ENE,58,2.0,4.0,89,0.00,,,0.00,0,Wunderground v.1.15,2013-03-05 14:21:00,
2013-03-05 08:22:00,22.5,19.7,29.20,ENE,58,0.0,4.0,89,0.00,,,0.00,0,Wunderground v.1.15,2013-03-05 14:22:00,
2013-03-05 08:26:00,22.5,19.7,29.20,ENE,58,3.0,4.0,89,0.00,,,0.00,0,Wunderground v.1.15,2013-03-05 14:26:00,
2013-03-05 08:27:00,22.5,19.7,29.20,ENE,58,2.0,4.0,89,0.00,,,0.00,0,Wunderground v.1.15,2013-03-05 14:27:00,
2013-03-05 08:31:00,22.6,19.8,29.20,ENE,58,2.0,6.0,89,0.00,,,0.00,0,Wunderground v.1.15,2013-03-05 14:31:00,
2013-03-05 08:32:00,22.6,19.8,29.21,ENE,58,2.0,6.0,89,0.00,,,0.00,0,Wunderground v.1.15,2013-03-05 14:32:00,
2013-03-05 08:36:00,22.5,19.7,29.20,ENE,59,2.0,7.0,89,0.00,,,0.00,0,Wunderground v.1.15,2013-03-05 14:36:00,
2013-03-05 08:37:00,22.5,19.7,29.20,ENE,59,1.0,7.0,89,0.00,,,0.00,0,Wunderground v.1.15,2013-03-05 14:37:00,
2013-03-05 08:41:00,22.7,19.9,29.20,ENE,58,3.0,6.0,89,0.00,,,0.00,0,Wunderground v.1.15,2013-03-05 14:41:00,
2013-03-05 08:42:00,22.7,19.9,29.20,ENE,58,1.0,6.0,89,0.00,,,0.00,0,Wunderground v.1.15,2013-03-05 14:42:00,
2013-03-05 08:43:00,22.7,19.9,29.20,ENE,58,2.0,6.0,89,0.00,,,0.00,0,Wunderground v.1.15,2013-03-05 14:43:00,
2013-03-05 08:46:00,22.7,19.9,29.20,ENE,58,1.0,6.0,89,0.00,,,0.00,0,Wunderground v.1.15,2013-03-05 14:46:00,
2013-03-05 08:47:00,22.7,19.9,29.21,ENE,58,0.0,6.0,89,0.00,,,0.00,0,Wunderground v.1.15,2013-03-05 14:47:00,
2013-03-05 08:48:00,22.7,19.9,29.20,ENE,58,2.0,6.0,89,0.00,,,0.00,0,Wunderground v.1.15,2013-03-05 14:48:00,
2013-03-05 08:52:00,22.8,20.0,29.20,ENE,58,2.0,5.0,89,0.00,,,0.00,0,Wunderground v.1.15,2013-03-05 14:52:00,
2013-03-05 08:53:00,22.8,20.0,29.21,ENE,58,1.0,5.0,89,0.00,,,0.00,0,Wunderground v.1.15,2013-03-05 14:53:00,
2013-03-05 08:57:00,22.8,20.0,29.21,ENE,58,1.0,5.0,89,0.00,,,0.00,0,Wunderground v.1.15,2013-03-05 14:57:00,
2013-03-05 08:58:00,22.9,20.1,29.21,ENE,58,0.0,5.0,89,0.00,,,0.00,0,Wunderground v.1.15,2013-03-05 14:58:00,
2013-03-05 09:02:00,22.9,19.9,29.21,ENE,58,3.0,5.0,88,0.00,,,0.00,0,Wunderground v.1.15,2013-03-05 15:02:00,
2013-03-05 09:03:00,22.9,20.1,29.21,ENE,58,1.0,5.0,89,0.00,,,0.00,0,Wunderground v.1.15,2013-03-05 15:03:00,
2013-03-05 09:07:00,22.9,19.9,29.21,ENE,58,2.0,6.0,88,0.00,,,0.00,0,Wunderground v.1.15,2013-03-05 15:07:00,
2013-03-05 09:08:00,22.9,19.9,29.20,ENE,59,1.0,6.0,88,0.00,,,0.00,0,Wunderground v.1.15,2013-03-05 15:08:00,
2013-03-05 09:12:00,23.0,20.0,29.22,ENE,58,0.0,3.0,88,0.00,,,0.00,0,Wunderground v.1.15,2013-03-05 15:12:00,
2013-03-05 09:13:00,23.1,20.1,29.22,ENE,58,1.0,3.0,88,0.00,,,0.00,0,Wunderground v.1.15,2013-03-05 15:13:00,
2013-03-05 09:17:00,23.2,20.2,29.21,ENE,58,1.0,3.0,88,0.00,,,0.00,0,Wunderground v.1.15,2013-03-05 15:17:00,
2013-03-05 09:18:00,23.2,20.2,29.21,ENE,58,1.0,3.0,88,0.00,,,0.00,0,Wunderground v.1.15,2013-03-05 15:18:00,
2013-03-05 09:19:00,23.2,20.2,29.22,ENE,58,3.0,4.0,88,0.00,,,0.00,0,Wunderground v.1.15,2013-03-05 15:19:00,
2013-03-05 09:23:00,23.3,20.3,29.22,ENE,58,0.0,4.0,88,0.00,,,0.00,0,Wunderground v.1.15,2013-03-05 15:23:00,
2013-03-05 09:24:00,23.3,20.3,29.21,ENE,58,1.0,4.0,88,0.00,,,0.00,0,Wunderground v.1.15,2013-03-05 15:24:00,
2013-03-05 09:28:00,23.3,20.0,29.22,ENE,58,0.0,5.0,87,0.00,,,0.00,0,Wunderground v.1.15,2013-03-05 15:28:00,
2013-03-05 09:29:00,23.3,20.3,29.21,ENE,58,1.0,5.0,88,0.00,,,0.00,0,Wunderground v.1.15,2013-03-05 15:29:00,
2013-03-05 09:33:00,23.3,20.0,29.22,ENE,58,5.0,6.0,87,0.00,,,0.00,0,Wunderground v.1.15,2013-03-05 15:33:00,
2013-03-05 09:34:00,23.3,20.0,29.22,ENE,58,0.0,6.0,87,0.00,,,0.00,0,Wunderground v.1.15,2013-03-05 15:34:00,
2013-03-05 09:38:00,23.3,20.0,29.22,ENE,59,2.0,6.0,87,0.00,,,0.00,0,Wunderground v.1.15,2013-03-05 15:38:00,
2013-03-05 09:39:00,23.4,20.1,29.22,NE,50,3.0,6.0,87,0.00,,,0.00,0,Wunderground v.1.15,2013-03-05 15:39:00,
2013-03-05 09:43:00,23.3,20.0,29.22,NE,50,0.0,5.0,87,0.00,,,0.00,0,Wunderground v.1.15,2013-03-05 15:43:00,
2013-03-05 09:44:00,23.4,20.1,29.23,NE,50,0.0,5.0,87,0.00,,,0.00,0,Wunderground v.1.15,2013-03-05 15:44:00,
2013-03-05 09:45:00,23.4,20.1,29.23,NE,50,0.0,5.0,87,0.00,,,0.00,0,Wunderground v.1.15,2013-03-05 15:45:00,
2013-03-05 09:48:00,23.5,20.2,29.22,NE,50,4.0,5.0,87,0.00,,,0.00,0,Wunderground v.1.15,2013-03-05 15:48:00,
2013-03-05 09:49:00,23.5,20.2,29.22,NE,50,1.0,1.0,87,0.00,,,0.00,0,Wunderground v.1.15,2013-03-05 15:49:00,
2013-03-05 09:50:00,23.5,20.2,29.23,NE,50,0.0,1.0,87,0.00,,,0.00,0,Wunderground v.1.15,2013-03-05 15:50:00,
2013-03-05 09:53:00,23.6,20.3,29.22,NE,50,0.0,3.0,87,0.00,,,0.00,0,Wunderground v.1.15,2013-03-05 15:53:00,
2013-03-05 09:54:00,23.7,20.4,29.23,NE,50,2.0,3.0,87,0.00,,,0.00,0,Wunderground v.1.15,2013-03-05 15:54:00,
2013-03-05 09:55:00,23.7,20.4,29.23,NE,50,0.0,3.0,87,0.00,,,0.00,0,Wunderground v.1.15,2013-03-05 15:55:00,
2013-03-05 09:58:00,23.7,20.4,29.23,NE,50,0.0,3.0,87,0.00,,,0.00,0,Wunderground v.1.15,2013-03-05 15:58:00,
2013-03-05 10:00:00,23.7,20.4,29.23,NE,50,1.0,2.0,87,0.00,,,0.00,0,Wunderground v.1.15,2013-03-05 16:00:00,
2013-03-05 10:04:00,23.8,20.5,29.23,NE,50,0.0,2.0,87,0.00,,,0.00,0,Wunderground v.1.15,2013-03-05 16:04:00,
2013-03-05 10:05:00,23.8,20.5,29.23,NE,50,0.0,2.0,87,0.00,,,0.00,0,Wunderground v.1.15,2013-03-05 16:05:00,
2013-03-05 10:06:00,23.9,20.6,29.23,NE,50,0.0,2.0,87,0.00,,,0.00,0,Wunderground v.1.15,2013-03-05 16:06:00,
2013-03-05 10:09:00,23.9,20.6,29.23,NE,50,0.0,2.0,87,0.00,,,0.00,0,Wunderground v.1.15,2013-03-05 16:09:00,
2013-03-05 10:10:00,23.9,20.6,29.23,NE,50,0.0,0.0,87,0.00,,,0.00,0,Wunderground v.1.15,2013-03-05 16:10:00,
2013-03-05 10:14:00,23.9,20.3,29.24,NE,50,0.0,5.0,86,0.00,,,0.00,0,Wunderground v.1.15,2013-03-05 16:14:00,
2013-03-05 10:15:00,23.9,20.3,29.23,NE,50,1.0,5.0,86,0.00,,,0.00,0,Wunderground v.1.15,2013-03-05 16:15:00,
2013-03-05 10:16:00,23.9,20.3,29.24,NE,49,0.0,5.0,86,0.00,,,0.00,0,Wunderground v.1.15,2013-03-05 16:16:00,
2013-03-05 10:19:00,23.9,20.3,29.24,NE,50,5.0,5.0,86,0.00,,,0.00,0,Wunderground v.1.15,2013-03-05 16:19:00,
2013-03-05 10:20:00,23.8,20.2,29.24,NE,48,4.0,7.0,86,0.00,,,0.00,0,Wunderground v.1.15,2013-03-05 16:20:00,
2013-03-05 10:21:00,23.8,20.2,29.24,NE,47,0.0,7.0,86,0.00,,,0.00,0,Wunderground v.1.15,2013-03-05 16:21:00,
2013-03-05 10:22:00,23.8,20.2,29.24,NE,47,1.0,7.0,86,0.00,,,0.00,0,Wunderground v.1.15,2013-03-05 16:22:00,
2013-03-05 10:24:00,23.7,20.1,29.24,NE,46,1.0,7.0,86,0.00,,,0.00,0,Wunderground v.1.15,2013-03-05 16:24:00,
2013-03-05 10:25:00,23.7,19.9,29.24,NE,45,3.0,7.0,85,0.00,,,0.00,0,Wunderground v.1.15,2013-03-05 16:25:00,
2013-03-05 10:26:00,23.7,20.1,29.24,NE,45,2.0,7.0,86,0.00,,,0.00,0,Wunderground v.1.15,2013-03-05 16:26:00,
2013-03-05 10:27:00,23.7,20.1,29.24,NE,45,0.0,7.0,86,0.00,,,0.00,0,Wunderground v.1.15,2013-03-05 16:27:00,
2013-03-05 10:30:00,23.7,19.9,29.24,NE,45,0.0,0.0,85,0.00,,,0.00,0,Wunderground v.1.15,2013-03-05 16:30:00,
2013-03-05 10:31:00,23.8,20.2,29.24,NE,43,3.0,6.0,86,0.00,,,0.00,0,Wunderground v.1.15,2013-03-05 16:31:00,
2013-03-05 10:32:00,23.7,19.9,29.24,NE,43,3.0,6.0,85,0.00,,,0.00,0,Wunderground v.1.15,2013-03-05 16:32:00,
2013-03-05 10:35:00,23.6,19.8,29.24,NE,43,2.0,6.0,85,0.00,,,0.00,0,Wunderground v.1.15,2013-03-05 16:35:00,
2013-03-05 10:36:00,23.6,20.0,29.24,NE,43,1.0,6.0,86,0.00,,,0.00,0,Wunderground v.1.15,2013-03-05 16:36:00,
2013-03-05 10:37:00,23.7,19.9,29.24,NE,43,4.0,6.0,85,0.00,,,0.00,0,Wunderground v.1.15,2013-03-05 16:37:00,
2013-03-05 10:40:00,23.7,19.9,29.24,NE,40,3.0,3.0,85,0.00,,,0.00,0,Wunderground v.1.15,2013-03-05 16:40:00,
2013-03-05 10:41:00,23.7,19.9,29.24,NE,40,1.0,4.0,85,0.00,,,0.00,0,Wunderground v.1.15,2013-03-05 16:41:00,
2013-03-05 10:42:00,23.8,20.2,29.24,NE,40,1.0,4.0,86,0.00,,,0.00,0,Wunderground v.1.15,2013-03-05 16:42:00,
2013-03-05 10:45:00,23.7,19.9,29.24,NE,38,2.0,5.0,85,0.00,,,0.00,0,Wunderground v.1.15,2013-03-05 16:45:00,
2013-03-05 10:46:00,23.7,19.9,29.24,NE,34,2.0,7.0,85,0.00,,,0.00,0,Wunderground v.1.15,2013-03-05 16:46:00,
2013-03-05 10:47:00,23.6,19.8,29.25,NE,34,0.0,7.0,85,0.00,,,0.00,0,Wunderground v.1.15,2013-03-05 16:47:00,
2013-03-05 10:50:00,23.7,19.9,29.24,NNE,23,1.0,2.0,85,0.00,,,0.00,0,Wunderground v.1.15,2013-03-05 16:50:00,
2013-03-05 10:51:00,23.7,19.9,29.24,NNE,24,3.0,6.0,85,0.00,,,0.00,0,Wunderground v.1.15,2013-03-05 16:51:00,
2013-03-05 10:52:00,23.7,19.9,29.25,NNE,24,3.0,6.0,85,0.00,,,0.00,0,Wunderground v.1.15,2013-03-05 16:52:00,
2013-03-05 10:55:00,23.7,19.9,29.24,NNE,23,0.0,6.0,85,0.00,,,0.00,0,Wunderground v.1.15,2013-03-05 16:55:00,
2013-03-05 10:57:00,23.7,19.9,29.24,NNE,23,2.0,6.0,85,0.00,,,0.00,0,Wunderground v.1.15,2013-03-05 16:57:00,
2013-03-05 11:01:00,23.8,19.9,29.25,NNE,23,0.0,4.0,85,0.00,,,0.00,0,Wunderground v.1.15,2013-03-05 17:01:00,
2013-03-05 11:02:00,23.8,19.9,29.25,NNE,23,3.0,4.0,85,0.00,,,0.00,0,Wunderground v.1.15,2013-03-05 17:02:00,
2013-03-05 11:06:00,23.7,19.9,29.24,NNE,21,0.0,6.0,85,0.00,,,0.00,0,Wunderground v.1.15,2013-03-05 17:06:00,
2013-03-05 11:07:00,23.7,19.9,29.25,NNE,21,0.0,6.0,85,0.00,,,0.00,0,Wunderground v.1.15,2013-03-05 17:07:00,
2013-03-05 11:08:00,23.7,19.9,29.25,NNE,21,0.0,6.0,85,0.00,,,0.00,0,Wunderground v.1.15,2013-03-05 17:08:00,
2013-03-05 11:11:00,23.7,19.9,29.26,NNE,23,4.0,9.0,85,0.00,,,0.00,0,Wunderground v.1.15,2013-03-05 17:11:00,
2013-03-05 11:12:00,23.7,19.9,29.25,NNE,23,1.0,9.0,85,0.00,,,0.00,0,Wunderground v.1.15,2013-03-05 17:12:00,
2013-03-05 11:13:00,23.7,19.9,29.26,NNE,23,0.0,9.0,85,0.00,,,0.00,0,Wunderground v.1.15,2013-03-05 17:13:00,
2013-03-05 11:16:00,23.8,19.9,29.25,NNE,23,4.0,9.0,85,0.00,,,0.00,0,Wunderground v.1.15,2013-03-05 17:16:00,
2013-03-05 11:17:00,23.7,19.9,29.26,NNE,22,3.0,9.0,85,0.00,,,0.00,0,Wunderground v.1.15,2013-03-05 17:17:00,
2013-03-05 11:18:00,23.8,19.9,29.26,NNE,22,6.0,9.0,85,0.00,,,0.00,0,Wunderground v.1.15,2013-03-05 17:18:00,
2013-03-05 11:21:00,23.7,19.9,29.25,NNE,23,2.0,5.0,85,0.00,,,0.00,0,Wunderground v.1.15,2013-03-05 17:21:00,
2013-03-05 11:23:00,23.8,19.9,29.26,NNE,23,2.0,5.0,85,0.00,,,0.00,0,Wunderground v.1.15,2013-03-05 17:23:00,
2013-03-05 11:24:00,23.7,19.9,29.25,NNE,23,4.0,6.0,85,0.00,,,0.00,0,Wunderground v.1.15,2013-03-05 17:24:00,
2013-03-05 11:26:00,23.7,19.9,29.25,NNE,22,4.0,6.0,85,0.00,,,0.00,0,Wunderground v.1.15,2013-03-05 17:26:00,
2013-03-05 11:28:00,23.8,19.9,29.25,NNE,22,0.0,6.0,85,0.00,,,0.00,0,Wunderground v.1.15,2013-03-05 17:28:00,
2013-03-05 11:29:00,23.7,19.9,29.25,NNE,22,2.0,6.0,85,0.00,,,0.00,0,Wunderground v.1.15,2013-03-05 17:29:00,
2013-03-05 11:31:00,23.8,19.7,29.25,NE,35,6.0,10.0,84,0.00,,,0.00,0,Wunderground v.1.15,2013-03-05 17:31:00,
2013-03-05 11:34:00,23.8,19.7,29.25,NNE,17,2.0,10.0,84,0.00,,,0.00,0,Wunderground v.1.15,2013-03-05 17:34:00,
2013-03-05 11:36:00,23.8,19.7,29.25,North,10,0.0,10.0,84,0.00,,,0.00,0,Wunderground v.1.15,2013-03-05 17:36:00,
2013-03-05 11:39:00,23.8,19.9,29.25,NNE,12,4.0,10.0,85,0.00,,,0.00,0,Wunderground v.1.15,2013-03-05 17:39:00,
2013-03-05 11:40:00,23.8,19.7,29.25,NNE,12,6.0,6.0,84,0.00,,,0.00,0,Wunderground v.1.15,2013-03-05 17:40:00,
2013-03-05 11:41:00,23.7,19.6,29.25,NNE,13,4.0,8.0,84,0.00,,,0.00,0,Wunderground v.1.15,2013-03-05 17:41:00,
2013-03-05 11:44:00,23.7,19.6,29.26,NNE,14,2.0,8.0,84,0.00,,,0.00,0,Wunderground v.1.15,2013-03-05 17:44:00,
2013-03-05 11:45:00,23.7,19.6,29.26,NNE,15,3.0,8.0,84,0.00,,,0.00,0,Wunderground v.1.15,2013-03-05 17:45:00,
2013-03-05 11:47:00,23.7,19.3,29.26,NNE,21,4.0,9.0,83,0.00,,,0.00,0,Wunderground v.1.15,2013-03-05 17:47:00,
2013-03-05 11:49:00,23.7,19.3,29.26,NNE,32,0.0,9.0,83,0.00,,,0.00,0,Wunderground v.1.15,2013-03-05 17:49:00,
2013-03-05 11:50:00,23.7,19.6,29.26,NNE,32,6.0,6.0,84,0.00,,,0.00,0,Wunderground v.1.15,2013-03-05 17:50:00,
2013-03-05 11:52:00,23.7,19.3,29.26,NNE,32,4.0,8.0,83,0.00,,,0.00,0,Wunderground v.1.15,2013-03-05 17:52:00,
2013-03-05 11:54:00,23.8,19.7,29.26,NNE,31,4.0,8.0,84,0.00,,,0.00,0,Wunderground v.1.15,2013-03-05 17:54:00,
2013-03-05 11:55:00,23.8,19.7,29.26,NNE,31,1.0,8.0,84,0.00,,,0.00,0,Wunderground v.1.15,2013-03-05 17:55:00,
2013-03-05 11:57:00,23.9,19.8,29.27,NNE,32,2.0,8.0,84,0.00,,,0.00,0,Wunderground v.1.15,2013-03-05 17:57:00,
2013-03-05 12:00:00,23.9,19.5,29.27,NNE,27,3.0,8.0,83,0.00,,,0.00,0,Wunderground v.1.15,2013-03-05 18:00:00,
2013-03-05 12:02:00,23.9,19.5,29.26,NNE,26,0.0,8.0,83,0.00,,,0.00,0,Wunderground v.1.15,2013-03-05 18:02:00,
2013-03-05 12:05:00,23.9,19.5,29.26,NNE,27,3.0,8.0,83,0.00,,,0.00,0,Wunderground v.1.15,2013-03-05 18:05:00,
2013-03-05 12:07:00,24.0,19.6,29.27,NNE,27,4.0,8.0,83,0.00,,,0.00,0,Wunderground v.1.15,2013-03-05 18:07:00,
2013-03-05 12:10:00,24.0,19.6,29.27,NNE,18,3.0,3.0,83,0.00,,,0.00,0,Wunderground v.1.15,2013-03-05 18:10:00,
2013-03-05 12:11:00,24.0,19.6,29.27,NNE,18,0.0,4.0,83,0.00,,,0.00,0,Wunderground v.1.15,2013-03-05 18:11:00,
2013-03-05 12:13:00,24.1,19.7,29.27,NNE,19,1.0,4.0,83,0.00,,,0.00,0,Wunderground v.1.15,2013-03-05 18:13:00,
2013-03-05 12:15:00,24.1,19.7,29.26,NNE,19,3.0,6.0,83,0.00,,,0.00,0,Wunderground v.1.15,2013-03-05 18:15:00,
2013-03-05 12:16:00,24.1,19.7,29.27,NNE,19,3.0,6.0,83,0.00,,,0.00,0,Wunderground v.1.15,2013-03-05 18:16:00,
2013-03-05 12:18:00,24.1,19.7,29.26,NNE,18,4.0,6.0,83,0.00,,,0.00,0,Wunderground v.1.15,2013-03-05 18:18:00,
2013-03-05 12:20:00,24.2,19.8,29.26,NNE,19,1.0,3.0,83,0.00,,,0.00,0,Wunderground v.1.15,2013-03-05 18:20:00,
2013-03-05 12:21:00,24.3,19.9,29.26,NNE,19,1.0,4.0,83,0.00,,,0.00,0,Wunderground v.1.15,2013-03-05 18:21:00,
2013-03-05 12:22:00,24.3,19.9,29.26,NNE,19,2.0,4.0,83,0.00,,,0.00,0,Wunderground v.1.15,2013-03-05 18:22:00,
2013-03-05 12:23:00,24.3,19.9,29.27,NNE,19,5.0,6.0,83,0.00,,,0.00,0,Wunderground v.1.15,2013-03-05 18:23:00,
2013-03-05 12:25:00,24.2,19.5,29.27,NNE,17,3.0,8.0,82,0.00,,,0.00,0,Wunderground v.1.15,2013-03-05 18:25:00,
2013-03-05 12:26:00,24.2,19.5,29.27,NNE,16,1.0,8.0,82,0.00,,,0.00,0,Wunderground v.1.15,2013-03-05 18:26:00,
2013-03-05 12:27:00,24.3,19.6,29.27,NNE,16,3.0,8.0,82,0.00,,,0.00,0,Wunderground v.1.15,2013-03-05 18:27:00,
2013-03-05 12:28:00,24.3,19.6,29.27,NNE,16,3.0,8.0,82,0.00,,,0.00,0,Wunderground v.1.15,2013-03-05 18:28:00,
2013-03-05 12:30:00,24.3,19.6,29.27,NNE,14,4.0,6.0,82,0.00,,,0.00,0,Wunderground v.1.15,2013-03-05 18:30:00,
2013-03-05 12:32:00,24.3,19.6,29.27,NNE,13,6.0,6.0,82,0.00,,,0.00,0,Wunderground v.1.15,2013-03-05 18:32:00,
2013-03-05 12:33:00,24.4,19.7,29.27,NNE,13,5.0,6.0,82,0.00,,,0.00,0,Wunderground v.1.15,2013-03-05 18:33:00,
2013-03-05 12:36:00,24.5,19.8,29.26,NNE,12,5.0,6.0,82,0.00,,,0.00,0,Wunderground v.1.15,2013-03-05 18:36:00,
2013-03-05 12:37:00,24.5,19.8,29.26,NNE,12,5.0,6.0,82,0.00,,,0.00,0,Wunderground v.1.15,2013-03-05 18:37:00,
2013-03-05 12:38:00,24.5,19.8,29.26,NNE,12,0.0,6.0,82,0.00,,,0.00,0,Wunderground v.1.15,2013-03-05 18:38:00,
2013-03-05 12:41:00,24.8,20.1,29.26,NNE,12,0.0,0.0,82,0.00,,,0.00,0,Wunderground v.1.15,2013-03-05 18:41:00,
2013-03-05 12:42:00,24.9,20.2,29.27,NNE,12,0.0,0.0,82,0.00,,,0.00,0,Wunderground v.1.15,2013-03-05 18:42:00,
2013-03-05 12:43:00,25.0,20.3,29.27,NNE,12,2.0,4.0,82,0.00,,,0.00,0,Wunderground v.1.15,2013-03-05 18:43:00,
2013-03-05 12:46:00,25.0,20.3,29.26,North,10,5.0,7.0,82,0.00,,,0.00,0,Wunderground v.1.15,2013-03-05 18:46:00,
2013-03-05 12:47:00,25.0,20.0,29.26,North,10,0.0,7.0,81,0.00,,,0.00,0,Wunderground v.1.15,2013-03-05 18:47:00,
2013-03-05 12:48:00,25.0,20.0,29.26,North,10,0.0,7.0,81,0.00,,,0.00,0,Wunderground v.1.15,2013-03-05 18:48:00,
2013-03-05 12:49:00,25.1,20.1,29.27,North,10,1.0,7.0,81,0.00,,,0.00,0,Wunderground v.1.15,2013-03-05 18:49:00,
2013-03-05 12:51:00,25.1,20.1,29.26,North,8,4.0,10.0,81,0.00,,,0.00,0,Wunderground v.1.15,2013-03-05 18:51:00,
2013-03-05 12:52:00,25.1,20.1,29.27,North,8,7.0,10.0,81,0.00,,,0.00,0,Wunderground v.1.15,2013-03-05 18:52:00,
2013-03-05 12:53:00,25.0,20.0,29.27,North,8,7.0,10.0,81,0.00,,,0.00,0,Wunderground v.1.15,2013-03-05 18:53:00,
2013-03-05 12:54:00,25.0,19.7,29.27,North,8,1.0,10.0,80,0.00,,,0.00,0,Wunderground v.1.15,2013-03-05 18:54:00,
2013-03-05 12:56:00,25.2,20.2,29.27,North,8,0.0,10.0,81,0.00,,,0.00,0,Wunderground v.1.15,2013-03-05 18:56:00,
2013-03-05 12:57:00,25.3,20.3,29.27,North,11,4.0,10.0,81,0.00,,,0.00,0,Wunderground v.1.15,2013-03-05 18:57:00,
2013-03-05 12:58:00,25.3,20.3,29.27,North,11,4.0,10.0,81,0.00,,,0.00,0,Wunderground v.1.15,2013-03-05 18:58:00,
2013-03-05 12:59:00,25.3,20.0,29.27,North,11,0.0,10.0,80,0.00,,,0.00,0,Wunderground v.1.15,2013-03-05 18:59:00,
2013-03-05 13:01:00,25.2,19.9,29.26,North,11,0.0,5.0,80,0.00,,,0.00,0,Wunderground v.1.15,2013-03-05 19:01:00,
2013-03-05 13:03:00,25.3,20.0,29.27,North,11,3.0,5.0,80,0.00,,,0.00,0,Wunderground v.1.15,2013-03-05 19:03:00,
2013-03-05 13:05:00,25.4,20.1,29.27,North,11,2.0,8.0,80,0.00,,,0.00,0,Wunderground v.1.15,2013-03-05 19:05:00,
2013-03-05 13:06:00,25.4,20.1,29.27,North,11,4.0,8.0,80,0.00,,,0.00,0,Wunderground v.1.15,2013-03-05 19:06:00,
2013-03-05 13:08:00,25.4,20.1,29.27,North,11,3.0,8.0,80,0.00,,,0.00,0,Wunderground v.1.15,2013-03-05 19:08:00,
2013-03-05 13:10:00,25.5,20.2,29.26,NNE,12,7.0,7.0,80,0.00,,,0.00,0,Wunderground v.1.15,2013-03-05 19:10:00,
2013-03-05 13:11:00,25.4,20.1,29.27,NNE,12,3.0,10.0,80,0.00,,,0.00,0,Wunderground v.1.15,2013-03-05 19:11:00,
2013-03-05 13:13:00,25.3,20.0,29.26,North,1,4.0,10.0,80,0.00,,,0.00,0,Wunderground v.1.15,2013-03-05 19:13:00,
2013-03-05 13:14:00,25.3,19.7,29.27,North,7,5.0,10.0,79,0.00,,,0.00,0,Wunderground v.1.15,2013-03-05 19:14:00,
2013-03-05 13:15:00,25.4,20.1,29.27,North,8,5.0,10.0,80,0.00,,,0.00,0,Wunderground v.1.15,2013-03-05 19:15:00,
2013-03-05 13:16:00,25.4,20.1,29.27,North,8,3.0,10.0,80,0.00,,,0.00,0,Wunderground v.1.15,2013-03-05 19:16:00,
2013-03-05 13:18:00,25.4,19.8,29.27,North,8,6.0,10.0,79,0.00,,,0.00,0,Wunderground v.1.15,2013-03-05 19:18:00,
2013-03-05 13:19:00,25.4,19.8,29.27,North,0,6.0,6.0,79,0.00,,,0.00,0,Wunderground v.1.15,2013-03-05 19:19:00,
2013-03-05 13:20:00,25.3,19.7,29.27,North,0,5.0,6.0,79,0.00,,,0.00,0,Wunderground v.1.15,2013-03-05 19:20:00,
2013-03-05 13:22:00,25.3,19.7,29.26,North,0,3.0,6.0,79,0.00,,,0.00,0,Wunderground v.1.15,2013-03-05 19:22:00,
2013-03-05 13:23:00,25.4,19.8,29.26,North,0,3.0,7.0,79,0.00,,,0.00,0,Wunderground v.1.15,2013-03-05 19:23:00,
2013-03-05 13:24:00,25.3,19.7,29.27,North,0,3.0,7.0,79,0.00,,,0.00,0,Wunderground v.1.15,2013-03-05 19:24:00,
2013-03-05 13:25:00,25.3,19.7,29.27,North,0,3.0,8.0,79,0.00,,,0.00,0,Wunderground v.1.15,2013-03-05 19:25:00,
2013-03-05 13:27:00,25.4,19.8,29.27,North,0,0.0,8.0,79,0.00,,,0.00,0,Wunderground v.1.15,2013-03-05 19:27:00,
2013-03-05 13:28:00,25.4,19.8,29.27,North,0,7.0,8.0,79,0.00,,,0.00,0,Wunderground v.1.15,2013-03-05 19:28:00,
2013-03-05 13:30:00,25.4,19.8,29.27,North,0,7.0,8.0,79,0.00,,,0.00,0,Wunderground v.1.15,2013-03-05 19:30:00,
2013-03-05 13:31:00,25.4,19.8,29.27,North,0,4.0,9.0,79,0.00,,,0.00,0,Wunderground v.1.15,2013-03-05 19:31:00,
2013-03-05 13:32:00,25.4,19.8,29.27,North,1,8.0,9.0,79,0.00,,,0.00,0,Wunderground v.1.15,2013-03-05 19:32:00,
2013-03-05 13:33:00,25.3,19.4,29.27,North,3,4.0,9.0,78,0.00,,,0.00,0,Wunderground v.1.15,2013-03-05 19:33:00,
2013-03-05 13:35:00,25.3,19.4,29.27,NNE,32,8.0,10.0,78,0.00,,,0.00,0,Wunderground v.1.15,2013-03-05 19:35:00,
2013-03-05 13:36:00,25.3,19.4,29.27,NE,41,1.0,10.0,78,0.00,,,0.00,0,Wunderground v.1.15,2013-03-05 19:36:00,
2013-03-05 13:38:00,25.2,19.3,29.27,NE,42,4.0,10.0,78,0.00,,,0.00,0,Wunderground v.1.15,2013-03-05 19:38:00,
2013-03-05 13:40:00,25.2,19.3,29.27,NE,42,3.0,6.0,78,0.00,,,0.00,0,Wunderground v.1.15,2013-03-05 19:40:00,
2013-03-05 13:41:00,25.2,19.3,29.27,NE,40,4.0,6.0,78,0.00,,,0.00,0,Wunderground v.1.15,2013-03-05 19:41:00,
2013-03-05 13:43:00,25.2,19.3,29.27,NNE,18,8.0,9.0,78,0.00,,,0.00,0,Wunderground v.1.15,2013-03-05 19:43:00,
2013-03-05 13:44:00,25.2,19.3,29.27,North,0,7.0,10.0,78,0.00,,,0.00,0,Wunderground v.1.15,2013-03-05 19:44:00,
2013-03-05 13:45:00,25.2,19.3,29.27,North,0,5.0,10.0,78,0.00,,,0.00,0,Wunderground v.1.15,2013-03-05 19:45:00,
2013-03-05 13:47:00,25.3,19.4,29.26,North,0,0.0,10.0,78,0.00,,,0.00,0,Wunderground v.1.15,2013-03-05 19:47:00,
2013-03-05 13:48:00,25.4,19.5,29.27,North,0,4.0,10.0,78,0.00,,,0.00,0,Wunderground v.1.15,2013-03-05 19:48:00,
2013-03-05 13:49:00,25.5,19.6,29.27,North,0,2.0,10.0,78,0.00,,,0.00,0,Wunderground v.1.15,2013-03-05 19:49:00,
2013-03-05 13:50:00,25.6,19.7,29.27,North,0,3.0,3.0,78,0.00,,,0.00,0,Wunderground v.1.15,2013-03-05 19:50:00,
2013-03-05 13:52:00,25.7,19.8,29.27,North,0,7.0,9.0,78,0.00,,,0.00,0,Wunderground v.1.15,2013-03-05 19:52:00,
2013-03-05 13:53:00,25.7,19.5,29.27,North,0,4.0,9.0,77,0.00,,,0.00,0,Wunderground v.1.15,2013-03-05 19:53:00,
2013-03-05 13:54:00,25.7,19.5,29.27,North,0,5.0,9.0,77,0.00,,,0.00,0,Wunderground v.1.15,2013-03-05 19:54:00,
2013-03-05 13:56:00,25.7,19.8,29.27,NE,42,4.0,9.0,78,0.00,,,0.00,0,Wunderground v.1.15,2013-03-05 19:56:00,
2013-03-05 13:57:00,25.6,19.4,29.27,NE,38,5.0,9.0,77,0.00,,,0.00,0,Wunderground v.1.15,2013-03-05 19:57:00,
2013-03-05 13:58:00,25.7,19.5,29.27,NNE,23,2.0,9.0,77,0.00,,,0.00,0,Wunderground v.1.15,2013-03-05 19:58:00,
2013-03-05 13:59:00,25.8,19.9,29.27,NNE,24,4.0,9.0,78,0.00,,,0.00,0,Wunderground v.1.15,2013-03-05 19:59:00,
2013-03-05 14:01:00,25.8,19.6,29.27,NNE,24,4.0,6.0,77,0.00,,,0.00,0,Wunderground v.1.15,2013-03-05 20:01:00,
2013-03-05 14:02:00,26.0,20.1,29.27,NNE,24,2.0,6.0,78,0.00,,,0.00,0,Wunderground v.1.15,2013-03-05 20:02:00,
2013-03-05 14:04:00,26.0,20.1,29.28,NNE,24,0.0,6.0,78,0.00,,,0.00,0,Wunderground v.1.15,2013-03-05 20:04:00,
2013-03-05 14:06:00,26.1,20.2,29.27,NNE,24,0.0,6.0,78,0.00,,,0.00,0,Wunderground v.1.15,2013-03-05 20:06:00,
2013-03-05 14:08:00,26.2,20.0,29.27,NNE,24,0.0,6.0,77,0.00,,,0.00,0,Wunderground v.1.15,2013-03-05 20:08:00,
2013-03-05 14:09:00,26.2,20.0,29.27,NNE,21,7.0,7.0,77,0.00,,,0.00,0,Wunderground v.1.15,2013-03-05 20:09:00,
2013-03-05 14:11:00,26.1,19.6,29.27,NNE,20,6.0,7.0,76,0.00,,,0.00,0,Wunderground v.1.15,2013-03-05 20:11:00,
2013-03-05 14:13:00,26.1,19.6,29.27,NNE,20,1.0,7.0,76,0.00,,,0.00,0,Wunderground v.1.15,2013-03-05 20:13:00,
2013-03-05 14:14:00,26.1,19.6,29.28,NNE,20,2.0,7.0,76,0.00,,,0.00,0,Wunderground v.1.15,2013-03-05 20:14:00,
2013-03-05 14:16:00,26.2,20.0,29.28,NNE,19,3.0,7.0,77,0.00,,,0.00,0,Wunderground v.1.15,2013-03-05 20:16:00,
2013-03-05 14:18:00,26.2,19.7,29.27,North,0,2.0,9.0,76,0.00,,,0.00,0,Wunderground v.1.15,2013-03-05 20:18:00,
2013-03-05 14:19:00,26.1,19.6,29.27,North,0,3.0,3.0,76,0.00,,,0.00,0,Wunderground v.1.15,2013-03-05 20:19:00,
2013-03-05 14:21:00,26.2,19.7,29.28,North,0,4.0,5.0,76,0.00,,,0.00,0,Wunderground v.1.15,2013-03-05 20:21:00,
2013-03-05 14:23:00,26.2,19.7,29.28,North,0,3.0,6.0,76,0.00,,,0.00,0,Wunderground v.1.15,2013-03-05 20:23:00,
2013-03-05 14:24:00,26.0,19.5,29.27,North,4,3.0,8.0,76,0.00,,,0.00,0,Wunderground v.1.15,2013-03-05 20:24:00,
2013-03-05 14:26:00,26.0,19.5,29.28,North,9,6.0,8.0,76,0.00,,,0.00,0,Wunderground v.1.15,2013-03-05 20:26:00,
2013-03-05 14:28:00,25.9,19.4,29.27,North,10,3.0,8.0,76,0.00,,,0.00,0,Wunderground v.1.15,2013-03-05 20:28:00,
2013-03-05 14:30:00,25.9,19.4,29.27,NNE,33,5.0,10.0,76,0.00,,,0.00,0,Wunderground v.1.15,2013-03-05 20:30:00,
2013-03-05 14:31:00,26.0,19.5,29.28,NNE,28,4.0,10.0,76,0.00,,,0.00,0,Wunderground v.1.15,2013-03-05 20:31:00,
2013-03-05 14:33:00,26.0,19.5,29.28,NNE,24,4.0,10.0,76,0.00,,,0.00,0,Wunderground v.1.15,2013-03-05 20:33:00,
2013-03-05 14:35:00,26.0,19.5,29.28,NNE,16,8.0,11.0,76,0.00,,,0.00,0,Wunderground v.1.15,2013-03-05 20:35:00,
2013-03-05 14:37:00,25.9,19.4,29.29,North,9,7.0,11.0,76,0.00,,,0.00,0,Wunderground v.1.15,2013-03-05 20:37:00,
2013-03-05 14:38:00,25.8,19.3,29.28,North,9,4.0,11.0,76,0.00,,,0.00,0,Wunderground v.1.15,2013-03-05 20:38:00,
2013-03-05 14:40:00,25.9,19.4,29.28,North,9,2.0,4.0,76,0.00,,,0.00,0,Wunderground v.1.15,2013-03-05 20:40:00,
2013-03-05 14:41:00,25.9,19.4,29.29,North,9,2.0,4.0,76,0.00,,,0.00,0,Wunderground v.1.15,2013-03-05 20:41:00,
2013-03-05 14:42:00,25.9,19.4,29.28,North,6,2.0,7.0,76,0.00,,,0.00,0,Wunderground v.1.15,2013-03-05 20:42:00,
2013-03-05 14:43:00,25.9,19.4,29.28,North,6,0.0,7.0,76,0.00,,,0.00,0,Wunderground v.1.15,2013-03-05 20:43:00,
2013-03-05 14:45:00,25.9,19.4,29.28,North,6,2.0,7.0,76,0.00,,,0.00,0,Wunderground v.1.15,2013-03-05 20:45:00,
2013-03-05 14:46:00,25.9,19.4,29.29,North,6,3.0,7.0,76,0.00,,,0.00,0,Wunderground v.1.15,2013-03-05 20:46:00,
2013-03-05 14:47:00,25.9,19.4,29.29,North,5,5.0,7.0,76,0.00,,,0.00,0,Wunderground v.1.15,2013-03-05 20:47:00,
2013-03-05 14:48:00,26.0,19.5,29.29,North,5,4.0,7.0,76,0.00,,,0.00,0,Wunderground v.1.15,2013-03-05 20:48:00,
2013-03-05 14:50:00,25.9,19.4,29.29,North,5,0.0,4.0,76,0.00,,,0.00,0,Wunderground v.1.15,2013-03-05 20:50:00,
2013-03-05 14:51:00,26.0,19.5,29.29,North,5,0.0,4.0,76,0.00,,,0.00,0,Wunderground v.1.15,2013-03-05 20:51:00,
2013-03-05 14:53:00,26.0,19.5,29.29,North,5,2.0,4.0,76,0.00,,,0.00,0,Wunderground v.1.15,2013-03-05 20:53:00,
2013-03-05 14:55:00,26.0,19.5,29.29,North,5,3.0,5.0,76,0.00,,,0.00,0,Wunderground v.1.15,2013-03-05 20:55:00,
2013-03-05 14:56:00,26.0,19.5,29.29,North,5,2.0,5.0,76,0.00,,,0.00,0,Wunderground v.1.15,2013-03-05 20:56:00,
2013-03-05 14:58:00,26.0,19.5,29.29,North,5,4.0,5.0,76,0.00,,,0.00,0,Wunderground v.1.15,2013-03-05 20:58:00,
2013-03-05 15:01:00,26.0,19.2,29.29,North,5,5.0,5.0,75,0.00,,,0.00,0,Wunderground v.1.15,2013-03-05 21:01:00,
2013-03-05 15:03:00,25.9,19.4,29.30,North,5,2.0,5.0,76,0.00,,,0.00,0,Wunderground v.1.15,2013-03-05 21:03:00,
2013-03-05 15:04:00,26.0,19.5,29.30,North,4,3.0,5.0,76,0.00,,,0.00,0,Wunderground v.1.15,2013-03-05 21:04:00,
2013-03-05 15:06:00,25.9,19.4,29.30,North,4,1.0,5.0,76,0.00,,,0.00,0,Wunderground v.1.15,2013-03-05 21:06:00,
2013-03-05 15:08:00,25.9,19.4,29.30,North,4,3.0,5.0,76,0.00,,,0.00,0,Wunderground v.1.15,2013-03-05 21:08:00,
2013-03-05 15:10:00,25.9,19.4,29.30,North,4,3.0,4.0,76,0.00,,,0.00,0,Wunderground v.1.15,2013-03-05 21:10:00,
2013-03-05 15:11:00,25.8,19.3,29.30,North,4,0.0,4.0,76,0.00,,,0.00,0,Wunderground v.1.15,2013-03-05 21:11:00,
2013-03-05 15:13:00,25.9,19.4,29.30,North,4,0.0,4.0,76,0.00,,,0.00,0,Wunderground v.1.15,2013-03-05 21:13:00,
2013-03-05 15:15:00,25.9,19.4,29.31,North,4,3.0,4.0,76,0.00,,,0.00,0,Wunderground v.1.15,2013-03-05 21:15:00,
2013-03-05 15:16:00,26.0,19.5,29.30,North,4,1.0,7.0,76,0.00,,,0.00,0,Wunderground v.1.15,2013-03-05 21:16:00,
2013-03-05 15:17:00,25.9,19.4,29.30,North,4,1.0,7.0,76,0.00,,,0.00,0,Wunderground v.1.15,2013-03-05 21:17:00,
2013-03-05 15:18:00,25.9,19.4,29.31,North,4,3.0,7.0,76,0.00,,,0.00,0,Wunderground v.1.15,2013-03-05 21:18:00,
2013-03-05 15:20:00,25.9,19.4,29.30,North,3,4.0,6.0,76,0.00,,,0.00,0,Wunderground v.1.15,2013-03-05 21:20:00,
2013-03-05 15:22:00,25.9,19.4,29.31,North,0,4.0,8.0,76,0.00,,,0.00,0,Wunderground v.1.15,2013-03-05 21:22:00,
2013-03-05 15:23:00,26.0,19.5,29.31,North,0,0.0,8.0,76,0.00,,,0.00,0,Wunderground v.1.15,2013-03-05 21:23:00,
2013-03-05 15:25:00,26.0,19.5,29.30,North,0,5.0,8.0,76,0.00,,,0.00,0,Wunderground v.1.15,2013-03-05 21:25:00,
2013-03-05 15:27:00,26.0,19.2,29.31,North,0,3.0,9.0,75,0.00,,,0.00,0,Wunderground v.1.15,2013-03-05 21:27:00,
2013-03-05 15:28:00,26.0,19.2,29.31,North,0,4.0,9.0,75,0.00,,,0.00,0,Wunderground v.1.15,2013-03-05 21:28:00,
2013-03-05 15:30:00,26.0,19.2,29.31,North,0,2.0,2.0,75,0.00,,,0.00,0,Wunderground v.1.15,2013-03-05 21:30:00,
2013-03-05 15:33:00,26.1,19.3,29.31,North,0,5.0,6.0,75,0.00,,,0.00,0,Wunderground v.1.15,2013-03-05 21:33:00,
2013-03-05 15:35:00,26.2,19.4,29.31,North,0,0.0,6.0,75,0.00,,,0.00,0,Wunderground v.1.15,2013-03-05 21:35:00,
2013-03-05 15:38:00,26.3,19.1,29.31,North,0,4.0,6.0,74,0.00,,,0.00,0,Wunderground v.1.15,2013-03-05 21:38:00,
2013-03-05 15:39:00,26.3,19.1,29.31,North,0,0.0,6.0,74,0.00,,,0.00,0,Wunderground v.1.15,2013-03-05 21:39:00,
2013-03-05 15:40:00,26.3,19.1,29.31,North,0,6.0,7.0,74,0.00,,,0.00,0,Wunderground v.1.15,2013-03-05 21:40:00,
2013-03-05 15:43:00,26.3,18.8,29.31,North,0,4.0,7.0,73,0.00,,,0.00,0,Wunderground v.1.15,2013-03-05 21:43:00,
2013-03-05 15:44:00,26.3,18.8,29.31,North,0,3.0,7.0,73,0.00,,,0.00,0,Wunderground v.1.15,2013-03-05 21:44:00,
2013-03-05 15:45:00,26.3,18.8,29.32,North,0,0.0,7.0,73,0.00,,,0.00,0,Wunderground v.1.15,2013-03-05 21:45:00,
2013-03-05 15:48:00,26.2,19.0,29.32,North,0,2.0,7.0,74,0.00,,,0.00,0,Wunderground v.1.15,2013-03-05 21:48:00,
2013-03-05 15:49:00,26.2,19.0,29.32,North,0,0.0,7.0,74,0.00,,,0.00,0,Wunderground v.1.15,2013-03-05 21:49:00,
2013-03-05 15:51:00,26.2,19.0,29.32,North,0,0.0,1.0,74,0.00,,,0.00,0,Wunderground v.1.15,2013-03-05 21:51:00,
2013-03-05 15:54:00,26.3,19.1,29.33,North,0,6.0,7.0,74,0.00,,,0.00,0,Wunderground v.1.15,2013-03-05 21:54:00,
2013-03-05 15:56:00,26.2,19.0,29.32,North,0,2.0,9.0,74,0.00,,,0.00,0,Wunderground v.1.15,2013-03-05 21:56:00,
2013-03-05 15:59:00,26.1,18.9,29.32,North,0,3.0,9.0,74,0.00,,,0.00,0,Wunderground v.1.15,2013-03-05 21:59:00,
2013-03-05 16:00:00,26.0,18.8,29.33,North,0,3.0,6.0,74,0.00,,,0.00,0,Wunderground v.1.15,2013-03-05 22:00:00,
2013-03-05 16:01:00,26.0,18.8,29.33,North,0,4.0,6.0,74,0.00,,,0.00,0,Wunderground v.1.15,2013-03-05 22:01:00,
2013-03-05 16:04:00,26.1,19.3,29.33,North,0,0.0,6.0,75,0.00,,,0.00,0,Wunderground v.1.15,2013-03-05 22:04:00,
2013-03-05 16:05:00,26.1,19.3,29.33,North,0,0.0,6.0,75,0.00,,,0.00,0,Wunderground v.1.15,2013-03-05 22:05:00,
2013-03-05 16:06:00,26.1,19.3,29.33,North,0,0.0,6.0,75,0.00,,,0.00,0,Wunderground v.1.15,2013-03-05 22:06:00,
2013-03-05 16:09:00,26.1,19.3,29.33,North,359,0.0,7.0,75,0.00,,,0.00,0,Wunderground v.1.15,2013-03-05 22:09:00,
2013-03-05 16:10:00,26.1,19.3,29.33,North,359,4.0,5.0,75,0.00,,,0.00,0,Wunderground v.1.15,2013-03-05 22:10:00,
2013-03-05 16:12:00,26.0,19.2,29.33,North,359,3.0,5.0,75,0.00,,,0.00,0,Wunderground v.1.15,2013-03-05 22:12:00,
2013-03-05 16:14:00,26.0,19.2,29.33,North,359,3.0,7.0,75,0.00,,,0.00,0,Wunderground v.1.15,2013-03-05 22:14:00,
2013-03-05 16:15:00,26.0,19.2,29.33,North,0,7.0,7.0,75,0.00,,,0.00,0,Wunderground v.1.15,2013-03-05 22:15:00,
2013-03-05 16:17:00,26.0,19.2,29.33,North,0,2.0,9.0,75,0.00,,,0.00,0,Wunderground v.1.15,2013-03-05 22:17:00,
2013-03-05 16:19:00,25.9,19.1,29.33,North,0,3.0,3.0,75,0.00,,,0.00,0,Wunderground v.1.15,2013-03-05 22:19:00,
2013-03-05 16:20:00,25.9,19.1,29.34,North,0,4.0,5.0,75,0.00,,,0.00,0,Wunderground v.1.15,2013-03-05 22:20:00,
2013-03-05 16:22:00,25.8,19.0,29.34,North,0,1.0,7.0,75,0.00,,,0.00,0,Wunderground v.1.15,2013-03-05 22:22:00,
2013-03-05 16:24:00,25.8,19.0,29.34,North,0,1.0,7.0,75,0.00,,,0.00,0,Wunderground v.1.15,2013-03-05 22:24:00,
2013-03-05 16:26:00,25.8,19.0,29.34,North,0,2.0,7.0,75,0.00,,,0.00,0,Wunderground v.1.15,2013-03-05 22:26:00,
2013-03-05 16:27:00,25.8,19.0,29.34,North,0,1.0,7.0,75,0.00,,,0.00,0,Wunderground v.1.15,2013-03-05 22:27:00,
2013-03-05 16:30:00,25.8,19.3,29.34,North,0,9.0,9.0,76,0.00,,,0.00,0,Wunderground v.1.15,2013-03-05 22:30:00,
2013-03-05 16:31:00,25.8,19.3,29.34,North,359,5.0,9.0,76,0.00,,,0.00,0,Wunderground v.1.15,2013-03-05 22:31:00,
2013-03-05 16:32:00,25.8,19.3,29.34,North,359,1.0,9.0,76,0.00,,,0.00,0,Wunderground v.1.15,2013-03-05 22:32:00,
2013-03-05 16:35:00,25.7,19.2,29.34,North,0,3.0,9.0,76,0.00,,,0.00,0,Wunderground v.1.15,2013-03-05 22:35:00,
2013-03-05 16:36:00,25.7,18.9,29.34,North,0,3.0,9.0,75,0.00,,,0.00,0,Wunderground v.1.15,2013-03-05 22:36:00,
2013-03-05 16:37:00,25.7,19.2,29.35,North,0,3.0,9.0,76,0.00,,,0.00,0,Wunderground v.1.15,2013-03-05 22:37:00,
2013-03-05 16:40:00,25.7,19.2,29.35,North,1,6.0,8.0,76,0.00,,,0.00,0,Wunderground v.1.15,2013-03-05 22:40:00,
2013-03-05 16:41:00,25.7,19.2,29.35,North,1,2.0,8.0,76,0.00,,,0.00,0,Wunderground v.1.15,2013-03-05 22:41:00,
2013-03-05 16:42:00,25.7,18.9,29.35,North,1,0.0,8.0,75,0.00,,,0.00,0,Wunderground v.1.15,2013-03-05 22:42:00,
2013-03-05 16:45:00,25.7,18.9,29.35,North,359,3.0,8.0,75,0.00,,,0.00,0,Wunderground v.1.15,2013-03-05 22:45:00,
2013-03-05 16:46:00,25.7,18.9,29.35,North,359,4.0,8.0,75,0.00,,,0.00,0,Wunderground v.1.15,2013-03-05 22:46:00,
2013-03-05 16:47:00,25.6,18.8,29.35,North,359,3.0,8.0,75,0.00,,,0.00,0,Wunderground v.1.15,2013-03-05 22:47:00,
2013-03-05 16:50:00,25.6,18.8,29.35,North,359,3.0,5.0,75,0.00,,,0.00,0,Wunderground v.1.15,2013-03-05 22:50:00,
2013-03-05 16:51:00,25.6,18.8,29.36,North,0,5.0,8.0,75,0.00,,,0.00,0,Wunderground v.1.15,2013-03-05 22:51:00,
2013-03-05 16:52:00,25.6,18.8,29.35,North,0,7.0,8.0,75,0.00,,,0.00,0,Wunderground v.1.15,2013-03-05 22:52:00,
2013-03-05 16:56:00,25.6,18.8,29.35,North,354,4.0,12.0,75,0.00,,,0.00,0,Wunderground v.1.15,2013-03-05 22:56:00,
2013-03-05 16:57:00,25.5,18.7,29.36,North,355,8.0,12.0,75,0.00,,,0.00,0,Wunderground v.1.15,2013-03-05 22:57:00,
2013-03-05 17:01:00,25.6,18.8,29.36,North,354,3.0,6.0,75,0.00,,,0.00,0,Wunderground v.1.15,2013-03-05 23:01:00,
2013-03-05 17:02:00,25.4,18.6,29.36,North,353,5.0,8.0,75,0.00,,,0.00,0,Wunderground v.1.15,2013-03-05 23:02:00,
2013-03-05 17:06:00,25.3,18.8,29.36,North,353,3.0,8.0,76,0.00,,,0.00,0,Wunderground v.1.15,2013-03-05 23:06:00,
2013-03-05 17:07:00,25.3,18.8,29.36,North,353,0.0,8.0,76,0.00,,,0.00,0,Wunderground v.1.15,2013-03-05 23:07:00,
2013-03-05 17:08:00,25.3,18.8,29.36,North,353,0.0,8.0,76,0.00,,,0.00,0,Wunderground v.1.15,2013-03-05 23:08:00,
2013-03-05 17:11:00,25.1,18.6,29.36,North,353,5.0,5.0,76,0.00,,,0.00,0,Wunderground v.1.15,2013-03-05 23:11:00,
2013-03-05 17:12:00,25.2,18.7,29.36,North,353,4.0,5.0,76,0.00,,,0.00,0,Wunderground v.1.15,2013-03-05 23:12:00,
2013-03-05 17:13:00,25.1,18.6,29.36,North,353,2.0,5.0,76,0.00,,,0.00,0,Wunderground v.1.15,2013-03-05 23:13:00,
2013-03-05 17:17:00,24.9,18.4,29.36,North,353,5.0,6.0,76,0.00,,,0.00,0,Wunderground v.1.15,2013-03-05 23:17:00,
2013-03-05 17:18:00,24.9,18.4,29.37,North,353,0.0,6.0,76,0.00,,,0.00,0,Wunderground v.1.15,2013-03-05 23:18:00,
2013-03-05 17:22:00,24.7,18.2,29.37,North,353,0.0,5.0,76,0.00,,,0.00,0,Wunderground v.1.15,2013-03-05 23:22:00,
2013-03-05 17:23:00,24.7,18.2,29.37,North,353,0.0,5.0,76,0.00,,,0.00,0,Wunderground v.1.15,2013-03-05 23:23:00,
2013-03-05 17:27:00,24.6,18.1,29.37,North,353,0.0,6.0,76,0.00,,,0.00,0,Wunderground v.1.15,2013-03-05 23:27:00,
2013-03-05 17:28:00,24.5,18.0,29.37,North,353,0.0,6.0,76,0.00,,,0.00,0,Wunderground v.1.15,2013-03-05 23:28:00,
2013-03-05 17:32:00,24.5,18.0,29.37,North,353,0.0,0.0,76,0.00,,,0.00,0,Wunderground v.1.15,2013-03-05 23:32:00,
2013-03-05 17:33:00,24.5,18.0,29.37,North,353,0.0,0.0,76,0.00,,,0.00,0,Wunderground v.1.15,2013-03-05 23:33:00,
2013-03-05 17:34:00,24.5,18.0,29.37,North,353,0.0,1.0,76,0.00,,,0.00,0,Wunderground v.1.15,2013-03-05 23:34:00,
2013-03-05 17:37:00,24.4,17.9,29.37,North,353,0.0,3.0,76,0.00,,,0.00,0,Wunderground v.1.15,2013-03-05 23:37:00,
2013-03-05 17:38:00,24.4,17.9,29.37,North,353,0.0,3.0,76,0.00,,,0.00,0,Wunderground v.1.15,2013-03-05 23:38:00,
2013-03-05 17:39:00,24.4,17.9,29.37,North,353,0.0,3.0,76,0.00,,,0.00,0,Wunderground v.1.15,2013-03-05 23:39:00,
2013-03-05 17:43:00,24.4,17.9,29.37,North,353,3.0,3.0,76,0.00,,,0.00,0,Wunderground v.1.15,2013-03-05 23:43:00,
2013-03-05 17:44:00,24.4,17.9,29.38,North,353,0.0,3.0,76,0.00,,,0.00,0,Wunderground v.1.15,2013-03-05 23:44:00,
2013-03-05 17:48:00,24.3,17.8,29.38,North,353,2.0,4.0,76,0.00,,,0.00,0,Wunderground v.1.15,2013-03-05 23:48:00,
2013-03-05 17:49:00,24.3,18.1,29.37,North,353,0.0,4.0,77,0.00,,,0.00,0,Wunderground v.1.15,2013-03-05 23:49:00,
2013-03-05 17:53:00,24.3,17.8,29.38,North,353,0.0,4.0,76,0.00,,,0.00,0,Wunderground v.1.15,2013-03-05 23:53:00,
2013-03-05 17:54:00,24.4,17.9,29.38,North,353,0.0,4.0,76,0.00,,,0.00,0,Wunderground v.1.15,2013-03-05 23:54:00,
2013-03-05 17:59:00,24.2,17.7,29.38,North,353,0.0,5.0,76,0.00,,,0.00,0,Wunderground v.1.15,2013-03-05 23:59:00,
2013-03-05 18:00:00,24.3,17.8,29.38,North,353,0.0,0.0,76,0.00,,,0.00,0,Wunderground v.1.15,2013-03-06 00:00:00,
2013-03-05 18:04:00,24.3,17.8,29.39,North,353,0.0,1.0,76,0.00,,,0.00,0,Wunderground v.1.15,2013-03-06 00:04:00,
2013-03-05 18:05:00,24.2,17.7,29.39,North,353,0.0,1.0,76,0.00,,,0.00,0,Wunderground v.1.15,2013-03-06 00:05:00,
2013-03-05 18:09:00,24.2,17.7,29.39,North,352,0.0,8.0,76,0.00,,,0.00,0,Wunderground v.1.15,2013-03-06 00:09:00,
2013-03-05 18:10:00,24.2,17.7,29.39,North,352,2.0,3.0,76,0.00,,,0.00,0,Wunderground v.1.15,2013-03-06 00:10:00,
2013-03-05 18:14:00,24.2,17.7,29.39,North,352,0.0,4.0,76,0.00,,,0.00,0,Wunderground v.1.15,2013-03-06 00:14:00,
2013-03-05 18:15:00,24.2,17.7,29.39,North,352,1.0,4.0,76,0.00,,,0.00,0,Wunderground v.1.15,2013-03-06 00:15:00,
2013-03-05 18:19:00,24.2,17.7,29.39,North,352,0.0,0.0,76,0.00,,,0.00,0,Wunderground v.1.15,2013-03-06 00:19:00,
2013-03-05 18:20:00,24.1,17.6,29.40,North,352,0.0,0.0,76,0.00,,,0.00,0,Wunderground v.1.15,2013-03-06 00:20:00,
2013-03-05 18:21:00,24.1,17.6,29.39,North,352,0.0,0.0,76,0.00,,,0.00,0,Wunderground v.1.15,2013-03-06 00:21:00,
2013-03-05 18:25:00,24.0,17.5,29.40,North,352,0.0,1.0,76,0.00,,,0.00,0,Wunderground v.1.15,2013-03-06 00:25:00,
2013-03-05 18:26:00,23.9,17.4,29.40,North,352,0.0,1.0,76,0.00,,,0.00,0,Wunderground v.1.15,2013-03-06 00:26:00,
2013-03-05 18:30:00,23.9,17.4,29.40,North,352,0.0,0.0,76,0.00,,,0.00,0,Wunderground v.1.15,2013-03-06 00:30:00,
2013-03-05 18:31:00,24.0,17.5,29.40,North,352,0.0,0.0,76,0.00,,,0.00,0,Wunderground v.1.15,2013-03-06 00:31:00,
2013-03-05 18:35:00,24.1,17.6,29.40,North,352,2.0,5.0,76,0.00,,,0.00,0,Wunderground v.1.15,2013-03-06 00:35:00,
2013-03-05 18:36:00,24.1,17.6,29.41,North,352,0.0,5.0,76,0.00,,,0.00,0,Wunderground v.1.15,2013-03-06 00:36:00,
2013-03-05 18:37:00,24.0,17.5,29.41,North,352,0.0,5.0,76,0.00,,,0.00,0,Wunderground v.1.15,2013-03-06 00:37:00,
2013-03-05 18:40:00,24.0,17.5,29.40,North,352,1.0,2.0,76,0.00,,,0.00,0,Wunderground v.1.15,2013-03-06 00:40:00,
2013-03-05 18:41:00,24.0,17.5,29.40,North,352,2.0,4.0,76,0.00,,,0.00,0,Wunderground v.1.15,2013-03-06 00:41:00,
2013-03-05 18:42:00,24.0,17.5,29.41,North,352,0.0,4.0,76,0.00,,,0.00,0,Wunderground v.1.15,2013-03-06 00:42:00,
2013-03-05 18:45:00,24.0,17.5,29.41,North,352,0.0,4.0,76,0.00,,,0.00,0,Wunderground v.1.15,2013-03-06 00:45:00,
2013-03-05 18:46:00,23.9,17.4,29.40,North,352,2.0,4.0,76,0.00,,,0.00,0,Wunderground v.1.15,2013-03-06 00:46:00,
2013-03-05 18:47:00,23.9,17.4,29.40,North,352,0.0,4.0,76,0.00,,,0.00,0,Wunderground v.1.15,2013-03-06 00:47:00,
2013-03-05 18:50:00,23.8,17.3,29.40,North,352,0.0,0.0,76,0.00,,,0.00,0,Wunderground v.1.15,2013-03-06 00:50:00,
2013-03-05 18:51:00,23.8,17.3,29.41,North,352,0.0,0.0,76,0.00,,,0.00,0,Wunderground v.1.15,2013-03-06 00:51:00,
2013-03-05 18:52:00,23.8,17.3,29.41,North,352,0.0,0.0,76,0.00,,,0.00,0,Wunderground v.1.15,2013-03-06 00:52:00,
2013-03-05 18:53:00,23.7,17.2,29.40,North,352,0.0,0.0,76,0.00,,,0.00,0,Wunderground v.1.15,2013-03-06 00:53:00,
2013-03-05 18:55:00,23.6,17.1,29.41,North,352,0.0,3.0,76,0.00,,,0.00,0,Wunderground v.1.15,2013-03-06 00:55:00,
2013-03-05 18:56:00,23.6,17.1,29.40,North,352,3.0,3.0,76,0.00,,,0.00,0,Wunderground v.1.15,2013-03-06 00:56:00,
2013-03-05 18:57:00,23.6,17.1,29.40,North,352,0.0,3.0,76,0.00,,,0.00,0,Wunderground v.1.15,2013-03-06 00:57:00,
2013-03-05 18:58:00,23.5,17.0,29.40,North,352,0.0,3.0,76,0.00,,,0.00,0,Wunderground v.1.15,2013-03-06 00:58:00,
2013-03-05 19:01:00,23.5,17.0,29.40,North,352,0.0,3.0,76,0.00,,,0.00,0,Wunderground v.1.15,2013-03-06 01:01:00,
2013-03-05 19:02:00,23.5,17.0,29.40,North,352,0.0,3.0,76,0.00,,,0.00,0,Wunderground v.1.15,2013-03-06 01:02:00,
2013-03-05 19:03:00,23.5,17.0,29.41,North,352,0.0,3.0,76,0.00,,,0.00,0,Wunderground v.1.15,2013-03-06 01:03:00,
2013-03-05 19:06:00,23.4,16.9,29.41,North,352,0.0,3.0,76,0.00,,,0.00,0,Wunderground v.1.15,2013-03-06 01:06:00,
2013-03-05 19:08:00,23.4,16.9,29.41,North,352,0.0,3.0,76,0.00,,,0.00,0,Wunderground v.1.15,2013-03-06 01:08:00,
2013-03-05 19:11:00,23.4,16.9,29.41,North,352,0.0,2.0,76,0.00,,,0.00,0,Wunderground v.1.15,2013-03-06 01:11:00,
2013-03-05 19:13:00,23.5,17.0,29.42,North,352,1.0,3.0,76,0.00,,,0.00,0,Wunderground v.1.15,2013-03-06 01:13:00,
2013-03-05 19:14:00,23.4,16.9,29.41,North,352,0.0,3.0,76,0.00,,,0.00,0,Wunderground v.1.15,2013-03-06 01:14:00,
2013-03-05 19:16:00,23.4,16.9,29.41,North,352,0.0,6.0,76,0.00,,,0.00,0,Wunderground v.1.15,2013-03-06 01:16:00,
2013-03-05 19:18:00,23.4,16.9,29.41,North,352,0.0,6.0,76,0.00,,,0.00,0,Wunderground v.1.15,2013-03-06 01:18:00,
2013-03-05 19:19:00,23.5,17.0,29.41,North,352,2.0,6.0,76,0.00,,,0.00,0,Wunderground v.1.15,2013-03-06 01:19:00,
2013-03-05 19:21:00,23.5,17.0,29.41,North,352,1.0,1.0,76,0.00,,,0.00,0,Wunderground v.1.15,2013-03-06 01:21:00,
2013-03-05 19:22:00,23.4,16.9,29.41,North,352,0.0,3.0,76,0.00,,,0.00,0,Wunderground v.1.15,2013-03-06 01:22:00,
2013-03-05 19:23:00,23.4,16.9,29.41,North,352,0.0,3.0,76,0.00,,,0.00,0,Wunderground v.1.15,2013-03-06 01:23:00,
2013-03-05 19:24:00,23.3,16.9,29.41,North,352,0.0,3.0,76,0.00,,,0.00,0,Wunderground v.1.15,2013-03-06 01:24:00,
2013-03-05 19:26:00,23.3,16.5,29.41,North,352,0.0,3.0,75,0.00,,,0.00,0,Wunderground v.1.15,2013-03-06 01:26:00,
2013-03-05 19:27:00,23.2,16.4,29.41,North,352,0.0,3.0,75,0.00,,,0.00,0,Wunderground v.1.15,2013-03-06 01:27:00,
2013-03-05 19:28:00,23.1,16.7,29.41,North,352,0.0,3.0,76,0.00,,,0.00,0,Wunderground v.1.15,2013-03-06 01:28:00,
2013-03-05 19:29:00,23.1,16.4,29.41,North,352,0.0,3.0,75,0.00,,,0.00,0,Wunderground v.1.15,2013-03-06 01:29:00,
2013-03-05 19:31:00,23.0,16.3,29.41,North,352,3.0,3.0,75,0.00,,,0.00,0,Wunderground v.1.15,2013-03-06 01:31:00,
2013-03-05 19:32:00,23.0,16.3,29.41,North,352,0.0,3.0,75,0.00,,,0.00,0,Wunderground v.1.15,2013-03-06 01:32:00,
2013-03-05 19:33:00,23.0,16.6,29.41,North,352,0.0,3.0,76,0.00,,,0.00,0,Wunderground v.1.15,2013-03-06 01:33:00,
2013-03-05 19:34:00,23.0,16.6,29.41,North,352,0.0,3.0,76,0.00,,,0.00,0,Wunderground v.1.15,2013-03-06 01:34:00,
2013-03-05 19:36:00,22.9,16.5,29.41,North,352,0.0,3.0,76,0.00,,,0.00,0,Wunderground v.1.15,2013-03-06 01:36:00,
2013-03-05 19:37:00,22.9,16.5,29.41,North,352,0.0,3.0,76,0.00,,,0.00,0,Wunderground v.1.15,2013-03-06 01:37:00,
2013-03-05 19:39:00,22.8,16.1,29.41,North,352,0.0,3.0,75,0.00,,,0.00,0,Wunderground v.1.15,2013-03-06 01:39:00,
2013-03-05 19:41:00,22.7,16.0,29.42,North,352,0.0,0.0,75,0.00,,,0.00,0,Wunderground v.1.15,2013-03-06 01:41:00,
2013-03-05 19:42:00,22.7,16.0,29.41,North,352,0.0,0.0,75,0.00,,,0.00,0,Wunderground v.1.15,2013-03-06 01:42:00,
2013-03-05 19:44:00,22.5,15.8,29.42,North,352,0.0,0.0,75,0.00,,,0.00,0,Wunderground v.1.15,2013-03-06 01:44:00,
2013-03-05 19:46:00,22.4,15.7,29.42,North,352,0.0,0.0,75,0.00,,,0.00,0,Wunderground v.1.15,2013-03-06 01:46:00,
2013-03-05 19:47:00,22.4,15.7,29.41,North,352,0.0,0.0,75,0.00,,,0.00,0,Wunderground v.1.15,2013-03-06 01:47:00,
2013-03-05 19:49:00,22.1,15.4,29.42,North,352,0.0,0.0,75,0.00,,,0.00,0,Wunderground v.1.15,2013-03-06 01:49:00,
2013-03-05 19:52:00,21.9,15.2,29.42,North,352,0.0,0.0,75,0.00,,,0.00,0,Wunderground v.1.15,2013-03-06 01:52:00,
2013-03-05 19:54:00,21.8,15.1,29.42,North,352,0.0,0.0,75,0.00,,,0.00,0,Wunderground v.1.15,2013-03-06 01:54:00,
2013-03-05 19:55:00,21.8,15.4,29.42,North,352,0.0,0.0,76,0.00,,,0.00,0,Wunderground v.1.15,2013-03-06 01:55:00,
2013-03-05 19:57:00,21.7,15.3,29.42,North,352,0.0,0.0,76,0.00,,,0.00,0,Wunderground v.1.15,2013-03-06 01:57:00,
2013-03-05 20:00:00,21.6,15.2,29.43,North,352,0.0,0.0,76,0.00,,,0.00,0,Wunderground v.1.15,2013-03-06 02:00:00,
2013-03-05 20:02:00,21.6,15.2,29.42,North,352,0.0,0.0,76,0.00,,,0.00,0,Wunderground v.1.15,2013-03-06 02:02:00,
2013-03-05 20:05:00,21.7,15.6,29.42,North,352,0.0,0.0,77,0.00,,,0.00,0,Wunderground v.1.15,2013-03-06 02:05:00,
2013-03-05 20:07:00,21.7,15.6,29.42,North,352,0.0,0.0,77,0.00,,,0.00,0,Wunderground v.1.15,2013-03-06 02:07:00,
2013-03-05 20:10:00,21.8,15.7,29.43,North,352,0.0,0.0,77,0.00,,,0.00,0,Wunderground v.1.15,2013-03-06 02:10:00,
2013-03-05 20:12:00,21.9,15.8,29.42,North,352,0.0,1.0,77,0.00,,,0.00,0,Wunderground v.1.15,2013-03-06 02:12:00,
2013-03-05 20:15:00,22.0,15.9,29.43,North,352,0.0,1.0,77,0.00,,,0.00,0,Wunderground v.1.15,2013-03-06 02:15:00,
2013-03-05 20:16:00,22.0,15.9,29.43,North,352,0.0,1.0,77,0.00,,,0.00,0,Wunderground v.1.15,2013-03-06 02:16:00,
2013-03-05 20:17:00,22.0,15.9,29.43,North,352,0.0,1.0,77,0.00,,,0.00,0,Wunderground v.1.15,2013-03-06 02:17:00,
2013-03-05 20:20:00,22.1,16.0,29.43,North,352,0.0,2.0,77,0.00,,,0.00,0,Wunderground v.1.15,2013-03-06 02:20:00,
2013-03-05 20:21:00,22.1,16.0,29.43,North,352,0.0,2.0,77,0.00,,,0.00,0,Wunderground v.1.15,2013-03-06 02:21:00,
2013-03-05 20:22:00,22.2,16.1,29.42,North,352,0.0,2.0,77,0.00,,,0.00,0,Wunderground v.1.15,2013-03-06 02:22:00,
2013-03-05 20:26:00,22.3,16.5,29.43,North,352,0.0,3.0,78,0.00,,,0.00,0,Wunderground v.1.15,2013-03-06 02:26:00,
2013-03-05 20:27:00,22.3,16.5,29.43,North,352,2.0,3.0,78,0.00,,,0.00,0,Wunderground v.1.15,2013-03-06 02:27:00,
2013-03-05 20:28:00,22.3,16.5,29.44,North,352,0.0,3.0,78,0.00,,,0.00,0,Wunderground v.1.15,2013-03-06 02:28:00,
2013-03-05 20:31:00,22.3,16.5,29.43,North,352,0.0,2.0,78,0.00,,,0.00,0,Wunderground v.1.15,2013-03-06 02:31:00,
2013-03-05 20:32:00,22.3,16.5,29.43,North,352,0.0,2.0,78,0.00,,,0.00,0,Wunderground v.1.15,2013-03-06 02:32:00,
2013-03-05 20:33:00,22.4,16.6,29.43,North,352,0.0,2.0,78,0.00,,,0.00,0,Wunderground v.1.15,2013-03-06 02:33:00,
2013-03-05 20:36:00,22.3,16.5,29.43,North,352,0.0,2.0,78,0.00,,,0.00,0,Wunderground v.1.15,2013-03-06 02:36:00,
2013-03-05 20:38:00,22.4,16.6,29.44,North,352,0.0,2.0,78,0.00,,,0.00,0,Wunderground v.1.15,2013-03-06 02:38:00,
2013-03-05 20:41:00,22.3,16.5,29.43,North,352,0.0,1.0,78,0.00,,,0.00,0,Wunderground v.1.15,2013-03-06 02:41:00,
2013-03-05 20:43:00,22.3,16.5,29.43,North,352,1.0,2.0,78,0.00,,,0.00,0,Wunderground v.1.15,2013-03-06 02:43:00,
2013-03-05 20:47:00,22.2,16.4,29.44,North,352,1.0,4.0,78,0.00,,,0.00,0,Wunderground v.1.15,2013-03-06 02:47:00,
2013-03-05 20:48:00,22.2,16.4,29.43,North,351,4.0,6.0,78,0.00,,,0.00,0,Wunderground v.1.15,2013-03-06 02:48:00,
2013-03-05 20:52:00,22.2,16.4,29.44,North,350,0.0,2.0,78,0.00,,,0.00,0,Wunderground v.1.15,2013-03-06 02:52:00,
2013-03-05 20:53:00,22.2,16.4,29.44,North,350,0.0,2.0,78,0.00,,,0.00,0,Wunderground v.1.15,2013-03-06 02:53:00,
2013-03-05 20:57:00,22.1,16.3,29.44,North,350,0.0,2.0,78,0.00,,,0.00,0,Wunderground v.1.15,2013-03-06 02:57:00,
2013-03-05 20:58:00,22.2,16.4,29.44,North,350,1.0,2.0,78,0.00,,,0.00,0,Wunderground v.1.15,2013-03-06 02:58:00,
2013-03-05 20:59:00,22.2,16.4,29.44,North,350,0.0,0.0,78,0.00,,,0.00,0,Wunderground v.1.15,2013-03-06 02:59:00,
2013-03-05 21:02:00,22.2,16.4,29.44,North,350,0.0,1.0,78,0.00,,,0.00,0,Wunderground v.1.15,2013-03-06 03:02:00,
2013-03-05 21:03:00,22.3,16.5,29.44,North,350,0.0,1.0,78,0.00,,,0.00,0,Wunderground v.1.15,2013-03-06 03:03:00,
2013-03-05 21:04:00,22.3,16.8,29.44,North,350,1.0,1.0,79,0.00,,,0.00,0,Wunderground v.1.15,2013-03-06 03:04:00,
2013-03-05 21:07:00,22.3,16.8,29.44,North,350,0.0,1.0,79,0.00,,,0.00,0,Wunderground v.1.15,2013-03-06 03:07:00,
2013-03-05 21:08:00,22.3,16.8,29.44,North,350,0.0,1.0,79,0.00,,,0.00,0,Wunderground v.1.15,2013-03-06 03:08:00,
2013-03-05 21:09:00,22.4,16.9,29.44,North,350,0.0,0.0,79,0.00,,,0.00,0,Wunderground v.1.15,2013-03-06 03:09:00,
2013-03-05 21:12:00,22.4,16.9,29.44,North,350,0.0,6.0,79,0.00,,,0.00,0,Wunderground v.1.15,2013-03-06 03:12:00,
2013-03-05 21:14:00,22.4,16.9,29.45,North,350,0.0,6.0,79,0.00,,,0.00,0,Wunderground v.1.15,2013-03-06 03:14:00,
2013-03-05 21:15:00,22.4,16.9,29.44,North,350,0.0,6.0,79,0.00,,,0.00,0,Wunderground v.1.15,2013-03-06 03:15:00,
2013-03-05 21:17:00,22.5,17.0,29.44,North,350,0.0,6.0,79,0.00,,,0.00,0,Wunderground v.1.15,2013-03-06 03:17:00,
2013-03-05 21:19:00,22.5,17.0,29.45,North,350,0.0,6.0,79,0.00,,,0.00,0,Wunderground v.1.15,2013-03-06 03:19:00,
2013-03-05 21:20:00,22.5,17.0,29.45,North,350,0.0,0.0,79,0.00,,,0.00,0,Wunderground v.1.15,2013-03-06 03:20:00,
2013-03-05 21:22:00,22.6,17.1,29.45,North,350,0.0,1.0,79,0.00,,,0.00,0,Wunderground v.1.15,2013-03-06 03:22:00,
2013-03-05 21:23:00,22.6,17.1,29.45,North,350,0.0,1.0,79,0.00,,,0.00,0,Wunderground v.1.15,2013-03-06 03:23:00,
2013-03-05 21:24:00,22.6,17.1,29.45,North,350,0.0,1.0,79,0.00,,,0.00,0,Wunderground v.1.15,2013-03-06 03:24:00,
2013-03-05 21:25:00,22.7,17.2,29.45,North,350,0.0,1.0,79,0.00,,,0.00,0,Wunderground v.1.15,2013-03-06 03:25:00,
2013-03-05 21:27:00,22.8,17.3,29.45,North,350,0.0,1.0,79,0.00,,,0.00,0,Wunderground v.1.15,2013-03-06 03:27:00,
2013-03-05 21:28:00,22.8,17.3,29.45,North,350,0.0,1.0,79,0.00,,,0.00,0,Wunderground v.1.15,2013-03-06 03:28:00,
2013-03-05 21:29:00,22.8,17.3,29.45,North,350,0.0,1.0,79,0.00,,,0.00,0,Wunderground v.1.15,2013-03-06 03:29:00,
2013-03-05 21:30:00,22.8,17.3,29.45,North,350,0.0,0.0,79,0.00,,,0.00,0,Wunderground v.1.15,2013-03-06 03:30:00,
2013-03-05 21:32:00,22.8,17.3,29.45,North,350,0.0,3.0,79,0.00,,,0.00,0,Wunderground v.1.15,2013-03-06 03:32:00,
2013-03-05 21:33:00,22.9,17.4,29.45,North,350,0.0,3.0,79,0.00,,,0.00,0,Wunderground v.1.15,2013-03-06 03:33:00,
2013-03-05 21:34:00,22.9,17.4,29.45,North,350,0.0,3.0,79,0.00,,,0.00,0,Wunderground v.1.15,2013-03-06 03:34:00,
2013-03-05 21:35:00,22.9,17.4,29.45,North,350,0.0,3.0,79,0.00,,,0.00,0,Wunderground v.1.15,2013-03-06 03:35:00,
2013-03-05 21:38:00,22.9,17.4,29.45,North,350,5.0,5.0,79,0.00,,,0.00,0,Wunderground v.1.15,2013-03-06 03:38:00,
2013-03-05 21:39:00,23.0,17.5,29.46,North,350,0.0,6.0,79,0.00,,,0.00,0,Wunderground v.1.15,2013-03-06 03:39:00,
2013-03-05 21:41:00,23.0,17.5,29.45,North,350,0.0,1.0,79,0.00,,,0.00,0,Wunderground v.1.15,2013-03-06 03:41:00,
2013-03-05 21:43:00,23.1,17.6,29.46,North,350,0.0,1.0,79,0.00,,,0.00,0,Wunderground v.1.15,2013-03-06 03:43:00,
2013-03-05 21:44:00,23.1,17.6,29.46,North,350,0.0,1.0,79,0.00,,,0.00,0,Wunderground v.1.15,2013-03-06 03:44:00,
2013-03-05 21:46:00,23.1,17.6,29.46,North,350,0.0,1.0,79,0.00,,,0.00,0,Wunderground v.1.15,2013-03-06 03:46:00,
2013-03-05 21:48:00,23.1,17.6,29.46,North,350,0.0,3.0,79,0.00,,,0.00,0,Wunderground v.1.15,2013-03-06 03:48:00,
2013-03-05 21:49:00,23.1,17.6,29.46,North,350,0.0,0.0,79,0.00,,,0.00,0,Wunderground v.1.15,2013-03-06 03:49:00,
2013-03-05 21:51:00,23.2,17.7,29.46,North,350,0.0,1.0,79,0.00,,,0.00,0,Wunderground v.1.15,2013-03-06 03:51:00,
2013-03-05 21:53:00,23.1,17.6,29.46,North,350,0.0,2.0,79,0.00,,,0.00,0,Wunderground v.1.15,2013-03-06 03:53:00,
2013-03-05 21:55:00,23.2,17.7,29.46,North,350,0.0,2.0,79,0.00,,,0.00,0,Wunderground v.1.15,2013-03-06 03:55:00,
2013-03-05 21:56:00,23.2,17.7,29.46,North,350,0.0,2.0,79,0.00,,,0.00,0,Wunderground v.1.15,2013-03-06 03:56:00,
2013-03-05 21:58:00,23.2,17.4,29.47,North,350,0.0,2.0,78,0.00,,,0.00,0,Wunderground v.1.15,2013-03-06 03:58:00,
2013-03-05 22:00:00,23.2,17.4,29.46,North,350,0.0,1.0,78,0.00,,,0.00,0,Wunderground v.1.15,2013-03-06 04:00:00,
2013-03-05 22:01:00,23.1,17.3,29.46,North,350,0.0,2.0,78,0.00,,,0.00,0,Wunderground v.1.15,2013-03-06 04:01:00,
2013-03-05 22:03:00,23.0,17.2,29.46,North,351,2.0,7.0,78,0.00,,,0.00,0,Wunderground v.1.15,2013-03-06 04:03:00,
2013-03-05 22:04:00,23.0,17.2,29.46,North,351,3.0,7.0,78,0.00,,,0.00,0,Wunderground v.1.15,2013-03-06 04:04:00,
2013-03-05 22:05:00,23.0,17.2,29.46,North,351,0.0,7.0,78,0.00,,,0.00,0,Wunderground v.1.15,2013-03-06 04:05:00,
2013-03-05 22:07:00,23.0,16.9,29.46,North,351,2.0,7.0,77,0.00,,,0.00,0,Wunderground v.1.15,2013-03-06 04:07:00,
2013-03-05 22:09:00,22.9,16.8,29.46,North,351,1.0,7.0,77,0.00,,,0.00,0,Wunderground v.1.15,2013-03-06 04:09:00,
2013-03-05 22:10:00,22.9,16.8,29.47,North,351,0.0,1.0,77,0.00,,,0.00,0,Wunderground v.1.15,2013-03-06 04:10:00,
2013-03-05 22:12:00,22.8,16.7,29.46,North,351,0.0,1.0,77,0.00,,,0.00,0,Wunderground v.1.15,2013-03-06 04:12:00,
2013-03-05 22:14:00,22.8,16.7,29.46,North,351,0.0,2.0,77,0.00,,,0.00,0,Wunderground v.1.15,2013-03-06 04:14:00,
2013-03-05 22:15:00,22.7,16.6,29.46,North,351,0.0,2.0,77,0.00,,,0.00,0,Wunderground v.1.15,2013-03-06 04:15:00,
2013-03-05 22:17:00,22.6,16.5,29.46,North,0,5.0,11.0,77,0.00,,,0.00,0,Wunderground v.1.15,2013-03-06 04:17:00,
2013-03-05 22:19:00,22.5,16.1,29.46,North,0,1.0,1.0,76,0.00,,,0.00,0,Wunderground v.1.15,2013-03-06 04:19:00,
2013-03-05 22:20:00,22.5,16.1,29.46,North,359,7.0,7.0,76,0.00,,,0.00,0,Wunderground v.1.15,2013-03-06 04:20:00,
2013-03-05 22:22:00,22.4,16.0,29.46,North,353,1.0,12.0,76,0.00,,,0.00,0,Wunderground v.1.15,2013-03-06 04:22:00,
2013-03-05 22:24:00,22.3,15.9,29.46,North,354,1.0,12.0,76,0.00,,,0.00,0,Wunderground v.1.15,2013-03-06 04:24:00,
2013-03-05 22:25:00,22.3,15.9,29.46,North,354,1.0,12.0,76,0.00,,,0.00,0,Wunderground v.1.15,2013-03-06 04:25:00,
2013-03-05 22:27:00,22.2,15.8,29.46,North,353,5.0,12.0,76,0.00,,,0.00,0,Wunderground v.1.15,2013-03-06 04:27:00,
2013-03-05 22:30:00,22.1,15.7,29.46,North,353,5.0,6.0,76,0.00,,,0.00,0,Wunderground v.1.15,2013-03-06 04:30:00,
2013-03-05 22:32:00,22.1,15.7,29.47,North,353,4.0,6.0,76,0.00,,,0.00,0,Wunderground v.1.15,2013-03-06 04:32:00,
2013-03-05 22:35:00,22.0,15.6,29.47,North,353,2.0,6.0,76,0.00,,,0.00,0,Wunderground v.1.15,2013-03-06 04:35:00,
2013-03-05 22:36:00,21.9,15.5,29.47,North,354,2.0,6.0,76,0.00,,,0.00,0,Wunderground v.1.15,2013-03-06 04:36:00,
2013-03-05 22:37:00,21.9,15.5,29.47,North,353,0.0,6.0,76,0.00,,,0.00,0,Wunderground v.1.15,2013-03-06 04:37:00,
2013-03-05 22:40:00,21.7,15.3,29.46,North,353,2.0,2.0,76,0.00,,,0.00,0,Wunderground v.1.15,2013-03-06 04:40:00,
2013-03-05 22:41:00,21.7,15.0,29.47,North,353,0.0,2.0,75,0.00,,,0.00,0,Wunderground v.1.15,2013-03-06 04:41:00,
2013-03-05 22:43:00,21.6,14.9,29.47,North,353,0.0,8.0,75,0.00,,,0.00,0,Wunderground v.1.15,2013-03-06 04:43:00,
2013-03-05 22:45:00,21.4,15.0,29.47,North,353,1.0,8.0,76,0.00,,,0.00,0,Wunderground v.1.15,2013-03-06 04:45:00,
2013-03-05 22:46:00,21.4,14.7,29.47,North,353,0.0,8.0,75,0.00,,,0.00,0,Wunderground v.1.15,2013-03-06 04:46:00,
2013-03-05 22:48:00,21.3,14.6,29.48,North,353,1.0,8.0,75,0.00,,,0.00,0,Wunderground v.1.15,2013-03-06 04:48:00,
2013-03-05 22:51:00,21.0,14.3,29.47,North,353,0.0,2.0,75,0.00,,,0.00,0,Wunderground v.1.15,2013-03-06 04:51:00,
2013-03-05 22:52:00,21.0,14.3,29.47,North,353,0.0,2.0,75,0.00,,,0.00,0,Wunderground v.1.15,2013-03-06 04:52:00,
2013-03-05 22:54:00,20.9,14.5,29.47,North,353,0.0,4.0,76,0.00,,,0.00,0,Wunderground v.1.15,2013-03-06 04:54:00,
2013-03-05 22:56:00,20.8,14.1,29.48,North,353,0.0,4.0,75,0.00,,,0.00,0,Wunderground v.1.15,2013-03-06 04:56:00,
2013-03-05 22:57:00,20.8,14.1,29.48,North,353,0.0,4.0,75,0.00,,,0.00,0,Wunderground v.1.15,2013-03-06 04:57:00,
2013-03-05 22:59:00,20.7,14.3,29.48,North,353,0.0,5.0,76,0.00,,,0.00,0,Wunderground v.1.15,2013-03-06 04:59:00,
2013-03-05 23:00:00,20.7,14.3,29.47,North,353,3.0,3.0,76,0.00,,,0.00,0,Wunderground v.1.15,2013-03-06 05:00:00,
2013-03-05 23:05:00,20.4,14.0,29.48,North,352,0.0,6.0,76,0.00,,,0.00,0,Wunderground v.1.15,2013-03-06 05:05:00,
2013-03-05 23:10:00,20.2,13.8,29.49,North,352,0.0,1.0,76,0.00,,,0.00,0,Wunderground v.1.15,2013-03-06 05:10:00,
2013-03-05 23:15:00,20.1,13.7,29.49,North,352,0.0,4.0,76,0.00,,,0.00,0,Wunderground v.1.15,2013-03-06 05:15:00,
2013-03-05 23:16:00,20.0,13.6,29.49,North,352,0.0,4.0,76,0.00,,,0.00,0,Wunderground v.1.15,2013-03-06 05:16:00,
2013-03-05 23:20:00,20.0,13.6,29.49,North,352,3.0,6.0,76,0.00,,,0.00,0,Wunderground v.1.15,2013-03-06 05:20:00,
2013-03-05 23:21:00,20.0,13.6,29.49,North,352,2.0,6.0,76,0.00,,,0.00,0,Wunderground v.1.15,2013-03-06 05:21:00,
2013-03-05 23:25:00,20.2,13.8,29.49,North,352,0.0,6.0,76,0.00,,,0.00,0,Wunderground v.1.15,2013-03-06 05:25:00,
2013-03-05 23:26:00,20.2,13.8,29.49,North,352,0.0,6.0,76,0.00,,,0.00,0,Wunderground v.1.15,2013-03-06 05:26:00,
2013-03-05 23:30:00,20.1,13.4,29.49,North,353,0.0,1.0,75,0.00,,,0.00,0,Wunderground v.1.15,2013-03-06 05:30:00,
2013-03-05 23:31:00,20.1,13.4,29.49,North,353,0.0,1.0,75,0.00,,,0.00,0,Wunderground v.1.15,2013-03-06 05:31:00,
2013-03-05 23:36:00,19.9,13.3,29.49,North,353,0.0,5.0,75,0.00,,,0.00,0,Wunderground v.1.15,2013-03-06 05:36:00,
2013-03-05 23:41:00,19.9,13.3,29.49,North,353,0.0,1.0,75,0.00,,,0.00,0,Wunderground v.1.15,2013-03-06 05:41:00,
2013-03-05 23:46:00,19.9,13.3,29.49,North,357,2.0,7.0,75,0.00,,,0.00,0,Wunderground v.1.15,2013-03-06 05:46:00,
2013-03-05 23:47:00,19.8,13.2,29.49,North,357,4.0,7.0,75,0.00,,,0.00,0,Wunderground v.1.15,2013-03-06 05:47:00,
2013-03-05 23:52:00,19.9,13.3,29.49,North,357,0.0,2.0,75,0.00,,,0.00,0,Wunderground v.1.15,2013-03-06 05:52:00,
2013-03-05 23:57:00,19.9,12.9,29.49,North,357,0.0,3.0,74,0.00,,,0.00,0,Wunderground v.1.15,2013-03-06 05:57:00,